Laatste waarneming: 00:11
Temperatuur:16,8°C
Dauwpunt:11,8°C
Rel. vocht:72,2%
Natte-bol:14,3°C
Wind (gem. 10 min.):4,9 m/s
Wind (max. 10 min.):1.7E+308 m/s
Windrichting:286°
Neerslagsom:0,0 mm
Neerslagintensiteit:0,0 mm/u
Luchtdruk:1025,8 hPa
Straling:0,0 W/m2
 
Maximumtemp.:16,8°C (00:07)
Minimumtemp.:16,7°C (00:01)
Hoogste windstoot:- m/s (00:00)


Bekijk de verwachting.

Bekijk de grafieken.
Bekijk het weekoverzicht.
Bekijk het maandoverzicht.
Bekijk het jaaroverzicht.
Dagtabel
Tijd Temp. Dauwp. Natte-bol Rel. Hum. Windsnelh. Windricht. Windstoot Neerslag Straling Luchtdruk
 
00:11 16,8 11,8 14,3 72,2 4,9 286 - 0,0 0 1.025,8
00:10 16,8 12,0 14,4 73,0 4,7 278 - 0,0 0 1.025,8
00:09 16,8 12,0 14,4 73,0 4,6 270 - 0,0 0 1.025,8
00:08 16,8 12,0 14,4 73,0 4,8 252 - 0,0 0 1.025,8
00:07 16,8 12,0 14,4 73,0 4,8 248 - 0,0 0 1.025,8
00:06 16,8 12,0 14,4 73,0 4,7 276 - 0,0 0 1.025,8
00:05 16,8 11,8 14,3 72,2 4,7 259 - 0,0 0 1.025,8
00:04 16,8 11,8 14,3 72,2 4,6 282 - 0,0 0 1.025,8
00:03 16,8 12,0 14,4 73,0 4,5 247 - 0,0 0 1.025,8
00:02 16,8 11,9 14,3 72,6 4,5 281 - 0,0 0 1.025,8
00:01 16,7 11,7 14,2 72,0 4,8 287 - 0,0 0 1.025,8
00:00 16,7 11,9 14,3 72,7 5,2 258 - 0,0 0 1.025,8
 
23:59 16,7 11,9 14,4 73,0 5,1 271 - 0,0 0 1.025,9
23:58 16,8 12,1 14,5 73,8 4,8 282 - 0,0 0 1.025,8
23:57 16,8 12,0 14,4 73,0 4,5 275 - 0,0 0 1.025,8
23:56 16,7 11,9 14,3 73,0 4,4 292 - 0,0 0 1.025,9
23:55 16,7 11,8 14,2 72,4 4,5 286 - 0,0 0 1.025,9
23:54 16,7 11,7 14,2 72,0 4,5 274 - 0,0 0 1.025,8
23:53 16,7 11,7 14,2 72,0 4,5 288 - 0,0 0 1.025,8
23:52 16,6 11,6 14,1 72,0 4,5 283 - 0,0 0 1.025,8
23:51 16,7 11,7 14,2 72,0 4,6 305 - 0,0 0 1.025,7
23:50 16,7 11,7 14,2 72,0 4,7 279 - 0,0 0 1.025,6
23:49 16,7 11,8 14,2 72,6 4,7 281 - 0,0 0 1.025,7
23:48 16,7 11,9 14,3 73,0 4,6 293 - 0,0 0 1.025,6
23:47 16,7 11,9 14,3 73,0 4,5 290 - 0,0 0 1.025,6
23:46 16,6 11,7 14,1 72,2 4,6 286 - 0,0 0 1.025,6
23:45 16,6 11,8 14,2 72,7 4,7 285 - 0,0 0 1.025,6
23:44 16,6 11,7 14,2 72,5 4,8 286 - 0,0 0 1.025,6
23:43 16,6 11,8 14,2 73,0 4,8 275 - 0,0 0 1.025,7
23:42 16,6 11,8 14,3 73,0 4,6 287 - 0,0 0 1.025,8
23:41 16,6 11,6 14,1 72,1 4,2 269 - 0,0 0 1.025,8
23:40 16,6 11,6 14,1 72,0 3,9 269 - 0,0 0 1.025,8
23:39 16,6 11,6 14,1 72,0 3,9 293 - 0,0 0 1.025,8
23:38 16,6 11,6 14,1 72,0 4,0 294 - 0,0 0 1.025,8
23:37 16,7 11,8 14,2 72,7 4,3 297 - 0,0 0 1.025,8
23:36 16,6 11,7 14,2 72,2 4,7 277 - 0,0 0 1.025,8
23:35 16,7 11,8 14,3 72,9 4,8 265 - 0,0 0 1.025,8
23:34 16,6 11,6 14,1 72,0 4,5 264 - 0,0 0 1.025,7
23:33 16,6 11,6 14,1 72,0 4,5 291 - 0,0 0 1.025,7
23:32 16,6 11,6 14,1 72,0 4,6 287 - 0,0 0 1.025,6
23:31 16,6 11,6 14,1 72,0 4,9 280 - 0,0 0 1.025,6
23:30 16,6 11,8 14,2 72,8 5,0 288 - 0,0 0 1.025,6
23:29 16,6 11,6 14,1 72,1 4,9 300 - 0,0 0 1.025,6
23:28 16,6 11,6 14,1 72,0 4,5 287 - 0,0 0 1.025,6
23:27 16,6 11,7 14,2 72,4 4,3 303 - 0,0 0 1.025,7
23:26 16,7 11,9 14,3 73,0 4,3 289 - 0,0 0 1.025,6
23:25 16,7 11,7 14,2 72,3 4,2 285 - 0,0 0 1.025,6
23:24 16,7 11,8 14,3 72,9 4,1 299 - 0,0 0 1.025,6
23:23 16,7 11,7 14,2 72,1 4,3 290 - 0,0 0 1.025,6
23:22 16,6 11,6 14,1 72,0 4,4 290 - 0,0 0 1.025,6
23:21 16,6 11,6 14,1 72,0 4,4 293 - 0,0 0 1.025,6
23:20 16,6 11,6 14,1 72,0 4,1 295 - 0,0 0 1.025,6
23:19 16,6 11,6 14,1 72,0 4,1 278 - 0,0 0 1.025,5
23:18 16,6 11,6 14,1 72,0 4,2 292 - 0,0 0 1.025,5
23:17 16,7 11,7 14,2 72,0 4,5 259 - 0,0 0 1.025,5
23:16 16,7 11,7 14,2 72,0 4,6 279 - 0,0 0 1.025,5
23:15 16,7 11,7 14,2 72,0 4,6 292 - 0,0 0 1.025,5
23:14 16,7 11,7 14,2 72,0 4,6 298 - 0,0 0 1.025,5
23:13 16,7 11,7 14,1 72,0 4,6 298 - 0,0 0 1.025,5
23:12 16,7 11,5 14,0 71,1 4,5 289 - 0,0 0 1.025,6
23:11 16,6 11,4 14,0 71,0 4,3 289 - 0,0 0 1.025,6
23:10 16,6 11,5 14,0 71,3 4,3 296 - 0,0 0 1.025,6
23:09 16,7 11,6 14,1 71,6 4,4 303 - 0,0 0 1.025,6
23:08 16,6 11,4 14,0 71,0 4,4 299 - 0,0 0 1.025,6
23:07 16,7 11,6 14,1 71,8 4,5 293 - 0,0 0 1.025,6
23:06 16,7 11,9 14,3 72,9 4,4 306 - 0,0 0 1.025,6
23:05 16,7 11,7 14,2 72,0 4,3 323 - 0,0 0 1.025,6
23:04 16,7 11,7 14,2 72,0 4,1 308 - 0,0 0 1.025,5
23:03 16,7 11,7 14,2 72,0 4,3 284 - 0,0 0 1.025,5
23:02 16,7 11,7 14,2 72,0 4,4 300 - 0,0 0 1.025,5
23:01 16,7 11,7 14,2 72,0 4,5 288 - 0,0 0 1.025,6
23:00 16,7 11,5 14,0 71,1 4,5 304 - 0,0 0 1.025,5
 
22:59 16,6 11,4 14,0 71,0 4,5 307 - 0,0 0 1.025,5
22:58 16,6 11,4 14,0 71,0 4,7 299 - 0,0 0 1.025,4
22:57 16,6 11,5 14,1 71,5 4,8 294 - 0,0 0 1.025,5
22:56 16,7 11,7 14,2 72,0 4,6 268 - 0,0 0 1.025,4
22:55 16,7 11,7 14,2 72,0 4,4 297 - 0,0 0 1.025,4
22:54 16,7 11,7 14,2 72,0 4,3 296 - 0,0 0 1.025,4
22:53 16,7 11,6 14,1 71,8 4,2 298 - 0,0 0 1.025,4
22:52 16,7 11,5 14,1 71,4 4,2 317 - 0,0 0 1.025,4
22:51 16,7 11,7 14,2 72,0 4,5 305 - 0,0 0 1.025,3
22:50 16,7 11,7 14,2 72,0 4,6 313 - 0,0 0 1.025,3
22:49 16,7 11,7 14,1 72,0 4,4 316 - 0,0 0 1.025,3
22:48 16,7 11,5 14,0 71,1 4,4 307 - 0,0 0 1.025,3
22:47 16,7 11,4 14,0 71,0 4,5 308 - 0,0 0 1.025,2
22:46 16,7 11,5 14,0 71,0 4,7 306 - 0,0 0 1.025,2
22:45 16,7 11,5 14,0 71,0 4,7 317 - 0,0 0 1.025,2
22:44 16,7 11,5 14,0 71,0 4,6 301 - 0,0 0 1.025,2
22:43 16,7 11,4 14,0 71,0 4,4 311 - 0,0 0 1.025,3
22:42 16,7 11,5 14,0 71,0 4,4 293 - 0,0 0 1.025,3
22:41 16,7 11,5 14,0 71,0 4,5 309 - 0,0 0 1.025,3
22:40 16,7 11,5 14,0 71,0 3,6 326 - 0,0 0 1.025,4
22:39 16,7 11,5 14,0 71,0 3,4 224 - 0,0 0 1.025,4
22:38 16,7 11,5 14,0 71,0 3,8 304 - 0,0 0 1.025,4
22:37 16,7 11,5 14,0 71,0 4,9 314 - 0,0 0 1.025,4
22:36 16,7 11,5 14,0 71,0 4,9 318 - 0,0 0 1.025,4
22:35 16,7 11,5 14,0 71,0 4,8 299 - 0,0 0 1.025,4
22:34 16,7 11,5 14,0 71,0 4,7 315 - 0,0 0 1.025,4
22:33 16,7 11,5 14,1 71,0 4,8 267 - 0,0 0 1.025,4
22:32 16,7 11,5 14,1 71,0 5,1 305 - 0,0 0 1.025,3
22:31 16,7 11,5 14,1 71,0 5,4 302 - 0,0 0 1.025,3
22:30 16,7 11,5 14,0 71,0 5,4 307 - 0,0 0 1.025,2
22:29 16,7 11,5 14,0 71,0 5,5 319 - 0,0 0 1.025,2
22:28 16,7 11,5 14,0 71,0 5,6 315 - 0,0 0 1.025,2
22:27 16,7 11,5 14,1 71,0 5,6 323 - 0,0 0 1.025,2
22:26 16,7 11,5 14,1 71,0 5,6 320 - 0,0 0 1.025,2
22:25 16,7 11,5 14,0 71,0 5,5 320 - 0,0 0 1.025,2
22:24 16,7 11,4 14,0 70,8 5,3 306 - 0,0 0 1.025,2
22:23 16,7 11,3 14,0 70,4 5,3 295 - 0,0 0 1.025,2
22:22 16,7 11,6 14,1 71,5 5,4 303 - 0,0 0 1.025,3
22:21 16,8 11,8 14,2 72,0 5,4 305 - 0,0 0 1.025,3
22:20 16,7 11,5 14,1 71,2 5,2 325 - 0,0 0 1.025,3
22:19 16,7 11,5 14,1 71,0 5,1 310 - 0,0 0 1.025,3
22:18 16,7 11,5 14,1 71,0 4,8 303 - 0,0 0 1.025,3
22:17 16,7 11,5 14,1 71,0 4,7 355 - 0,0 0 1.025,3
22:16 16,7 11,4 14,0 70,5 4,7 313 - 0,0 0 1.025,3
22:15 16,7 11,3 13,9 70,0 5,0 311 - 0,0 0 1.025,3
22:14 16,7 11,3 13,9 70,0 5,2 305 - 0,0 0 1.025,2
22:13 16,7 11,5 14,0 70,9 5,1 303 - 0,0 0 1.025,2
22:12 16,7 11,3 13,9 70,0 4,9 328 - 0,0 0 1.025,3
22:11 16,7 11,2 13,8 69,6 4,8 319 - 0,0 0 1.025,2
22:10 16,7 11,2 13,8 69,6 4,9 317 - 0,0 0 1.025,2
22:09 16,7 11,4 14,0 70,7 5,2 305 - 0,0 0 1.025,2
22:08 16,7 11,5 14,1 71,0 5,4 296 - 0,0 0 1.025,3
22:07 16,7 11,5 14,1 71,0 5,2 299 - 0,0 0 1.025,3
22:06 16,7 11,5 14,1 71,0 5,1 319 - 0,0 0 1.025,3
22:05 16,7 11,5 14,1 71,0 5,0 292 - 0,0 0 1.025,4
22:04 16,7 11,5 14,1 71,0 5,1 301 - 0,0 0 1.025,3
22:03 16,7 11,4 14,0 70,3 5,2 323 - 0,0 0 1.025,3
22:02 16,7 11,5 14,1 70,9 5,2 290 - 0,0 0 1.025,4
22:01 16,8 11,6 14,1 71,0 5,3 309 - 0,0 0 1.025,4
22:00 16,8 11,6 14,2 71,3 5,5 313 - 0,0 0 1.025,3
 
21:59 16,8 11,8 14,3 72,0 5,6 300 - 0,0 0 1.025,2
21:58 16,8 11,8 14,3 72,0 5,6 305 - 0,0 0 1.025,3
21:57 16,8 11,8 14,3 72,0 5,6 320 - 0,0 0 1.025,3
21:56 16,8 11,6 14,1 71,2 5,7 306 - 0,0 0 1.025,3
21:55 16,8 11,4 14,0 70,1 5,9 307 - 0,0 0 1.025,3
21:54 16,8 11,4 14,0 70,3 6,2 302 - 0,0 0 1.025,3
21:53 16,8 11,6 14,1 71,0 6,3 301 - 0,0 0 1.025,3
21:52 16,8 11,7 14,2 71,6 6,2 315 - 0,0 0 1.025,2
21:51 16,8 11,8 14,3 72,0 5,8 304 - 0,0 0 1.025,3
21:50 16,8 11,6 14,1 71,1 5,5 309 - 0,0 0 1.025,4
21:49 16,8 11,7 14,3 71,8 5,5 305 - 0,0 0 1.025,4
21:48 16,8 11,6 14,2 71,3 5,7 317 - 0,0 0 1.025,3
21:47 16,8 11,8 14,3 72,0 5,8 299 - 0,0 0 1.025,3
21:46 16,8 11,8 14,3 72,0 5,8 309 - 0,0 0 1.025,2
21:45 16,8 11,8 14,3 72,0 5,7 295 - 0,0 0 1.025,2
21:44 16,8 11,8 14,3 72,0 5,8 320 - 0,0 0 1.025,2
21:43 16,9 11,9 14,4 72,0 5,8 305 - 0,0 0 1.025,2
21:42 16,9 11,9 14,4 72,0 5,8 303 - 0,0 0 1.025,2
21:41 16,9 11,8 14,3 71,5 5,8 307 - 0,0 0 1.025,1
21:40 16,9 11,7 14,2 71,0 6,0 314 - 0,0 0 1.025,2
21:39 16,9 11,8 14,3 71,8 6,0 302 - 0,0 0 1.025,2
21:38 16,9 11,7 14,2 71,1 6,2 299 - 0,0 0 1.025,2
21:37 16,9 11,7 14,3 71,0 6,5 311 - 0,0 0 1.025,2
21:36 16,9 11,6 14,2 70,7 6,7 294 - 0,0 0 1.025,2
21:35 16,9 11,6 14,2 70,5 6,8 294 - 0,0 0 1.025,2
21:34 16,9 11,7 14,3 71,0 6,8 299 - 0,0 0 1.025,1
21:33 17,0 12,1 14,5 72,6 6,6 311 - 0,0 0 1.025,1
21:32 17,0 12,1 14,6 72,9 6,4 294 - 0,0 0 1.025,1
21:31 16,9 11,9 14,4 71,8 6,4 300 - 0,0 0 1.025,2
21:30 16,9 11,7 14,3 71,0 6,6 301 - 0,0 0 1.025,2
21:29 17,0 11,8 14,4 71,5 6,6 281 - 0,0 0 1.025,1
21:28 17,0 11,8 14,3 71,3 6,5 302 - 0,0 0 1.025,1
21:27 17,0 11,9 14,4 71,8 6,3 296 - 0,0 0 1.025,1
21:26 16,9 11,5 14,2 70,1 6,2 319 - 0,0 0 1.025,1
21:25 16,9 11,6 14,2 70,3 6,5 283 - 0,0 0 1.025,1
21:24 16,9 11,7 14,3 71,0 6,9 280 - 0,0 0 1.025,0
21:23 16,9 11,6 14,2 70,5 6,8 301 - 0,0 0 1.025,1
21:22 16,9 11,5 14,1 70,0 6,8 288 - 0,0 0 1.024,9
21:21 16,9 11,5 14,1 70,0 7,3 303 - 0,0 0 1.024,9
21:20 17,0 11,8 14,4 71,3 7,6 294 - 0,0 0 1.024,9
21:19 17,0 12,0 14,5 72,0 7,4 303 - 0,0 0 1.024,9
21:18 17,0 12,0 14,5 72,0 7,1 313 - 0,0 0 1.024,9
21:17 16,9 11,7 14,3 70,9 7,0 308 - 0,0 0 1.024,9
21:16 16,9 11,5 14,1 70,0 7,1 309 - 0,0 0 1.024,9
21:15 17,0 11,7 14,3 70,9 7,3 288 - 0,0 0 1.025,0
21:14 17,0 11,6 14,2 70,2 7,3 285 - 0,0 0 1.025,0
21:13 17,0 11,8 14,4 71,0 7,2 307 - 0,0 0 1.025,1
21:12 17,0 11,9 14,4 71,5 7,1 290 - 0,0 0 1.025,0
21:11 17,1 11,9 14,5 71,4 7,0 286 - 0,0 0 1.024,9
21:10 17,1 12,0 14,5 71,8 6,8 294 - 0,0 0 1.024,9
21:09 17,1 12,1 14,6 72,0 6,6 296 - 0,0 0 1.024,9
21:08 17,1 12,1 14,6 72,0 6,3 308 - 0,0 0 1.024,9
21:07 17,1 12,0 14,5 71,7 6,1 291 - 0,0 0 1.024,9
21:06 17,1 11,8 14,4 71,0 6,5 263 - 0,0 0 1.024,8
21:05 17,1 11,9 14,4 71,0 7,0 308 - 0,0 0 1.024,8
21:04 17,1 11,9 14,4 71,0 7,5 298 - 0,0 0 1.024,7
21:03 17,1 11,6 14,3 70,1 7,5 301 - 0,0 0 1.024,7
21:02 17,1 11,6 14,2 69,8 7,7 297 - 0,0 0 1.024,7
21:01 17,0 11,4 14,1 69,0 8,0 299 - 0,0 0 1.024,8
21:00 17,0 11,5 14,2 69,5 8,1 296 - 0,0 0 1.024,8
 
20:59 17,1 11,5 14,2 69,4 7,8 290 - 0,0 0 1.024,7
20:58 17,1 11,4 14,1 69,0 7,8 263 - 0,0 0 1.024,7
20:57 17,1 11,6 14,2 69,9 7,9 292 - 0,0 0 1.024,6
20:56 17,1 11,5 14,2 69,2 8,4 311 - 0,0 0 1.024,6
20:55 17,1 11,6 14,2 69,7 8,5 292 - 0,0 0 1.024,7
20:54 17,1 11,5 14,2 69,5 8,5 285 - 0,0 0 1.024,6
20:53 17,1 11,3 14,0 68,4 8,2 295 - 0,0 0 1.024,6
20:52 17,1 11,2 14,0 68,0 8,4 295 - 0,0 0 1.024,7
20:51 17,1 11,2 14,0 68,1 8,5 288 - 0,0 0 1.024,7
20:50 17,1 11,4 14,2 69,0 8,3 294 - 0,0 0 1.024,7
20:49 17,1 11,5 14,2 69,0 8,2 302 - 0,0 0 1.024,6
20:48 17,1 11,3 14,1 68,5 8,2 299 - 0,0 0 1.024,7
20:47 17,1 11,2 14,0 68,0 8,4 285 - 0,0 0 1.024,7
20:46 17,1 11,6 14,3 69,6 8,1 292 - 0,0 0 1.024,6
20:45 17,1 11,3 14,1 68,1 7,9 292 - 0,0 0 1.024,6
20:44 17,1 11,2 14,0 68,0 8,1 269 - 0,0 0 1.024,5
20:43 17,1 11,2 14,0 68,0 8,5 299 - 0,0 0 1.024,4
20:42 17,1 11,1 14,0 67,5 8,7 286 - 0,0 0 1.024,4
20:41 17,1 11,5 14,2 69,1 8,4 311 11,6 0,0 0 1.024,4
20:40 17,2 11,5 14,2 69,2 8,2 276 - 0,0 0 1.024,5
20:39 17,2 11,5 14,2 69,2 7,9 300 - 0,0 0 1.024,4
20:38 17,2 11,7 14,3 69,7 7,6 303 - 0,0 0 1.024,4
20:37 17,2 11,5 14,2 69,0 7,3 331 - 0,0 0 1.024,5
20:36 17,2 11,5 14,2 69,0 7,3 297 - 0,0 0 1.024,4
20:35 17,2 11,5 14,2 69,0 7,9 300 - 0,0 0 1.024,4
20:34 17,2 11,5 14,2 69,0 8,1 298 - 0,0 0 1.024,4
20:33 17,2 11,3 14,1 67,9 8,3 301 - 0,0 0 1.024,4
20:32 17,2 11,1 14,0 67,0 8,7 295 - 0,0 0 1.024,3
20:31 17,2 11,2 14,0 67,5 9,4 283 - 0,0 0 1.024,2
20:30 17,2 11,5 14,2 68,6 9,7 282 - 0,0 0 1.024,2
20:29 17,2 11,2 14,0 67,5 9,3 288 - 0,0 0 1.024,2
20:28 17,2 11,1 13,9 67,0 8,9 249 - 0,0 0 1.024,2
20:27 17,2 11,1 13,9 67,2 9,0 288 - 0,0 0 1.024,2
20:26 17,1 11,3 14,1 68,0 9,7 293 - 0,0 0 1.024,2
20:25 17,1 11,5 14,2 69,3 10,0 295 - 0,0 0 1.024,2
20:24 17,1 11,7 14,3 70,0 10,0 293 - 0,0 0 1.024,2
20:23 17,2 11,9 14,5 70,8 9,4 271 - 0,0 0 1.024,3
20:22 17,2 12,0 14,5 71,1 8,7 258 - 0,0 0 1.024,2
20:21 17,2 12,1 14,6 72,0 8,4 292 - 0,0 0 1.024,2
20:20 17,2 12,2 14,7 72,4 8,9 296 - 0,0 0 1.024,2
20:19 17,2 12,3 14,7 72,4 8,4 290 - 0,0 0 1.024,2
20:18 17,2 12,2 14,7 72,0 7,7 292 - 0,0 1 1.024,2
20:17 17,2 12,2 14,7 72,0 7,7 317 - 0,0 5 1.024,2
20:16 17,2 12,2 14,7 72,0 8,2 304 - 0,0 5 1.024,1
20:15 17,2 12,3 14,7 72,4 8,4 301 - 0,0 5 1.024,1
20:14 17,2 12,3 14,7 72,5 8,5 293 - 0,0 7 1.024,1
20:13 17,2 12,3 14,8 72,5 8,7 287 - 0,0 7 1.024,0
20:12 17,2 12,4 14,8 73,0 8,8 292 - 0,0 7 1.024,1
20:11 17,3 12,5 14,9 73,0 8,9 291 - 0,0 7 1.024,1
20:10 17,3 12,2 14,7 72,1 8,5 286 - 0,0 8 1.024,1
20:09 17,3 12,3 14,8 72,3 8,1 313 - 0,0 9 1.024,2
20:08 17,3 12,4 14,8 72,6 7,9 294 - 0,0 10 1.024,1
20:07 17,3 12,4 14,8 72,6 8,2 285 - 0,0 11 1.024,1
20:06 17,2 12,3 14,7 72,4 8,2 298 - 0,0 11 1.024,1
20:05 17,2 12,2 14,7 72,0 8,4 303 - 0,0 12 1.024,1
20:04 17,2 12,2 14,7 72,0 8,4 303 - 0,0 13 1.024,0
20:03 17,2 12,3 14,7 72,3 8,5 286 - 0,0 15 1.024,0
20:02 17,2 12,4 14,8 73,0 8,3 296 - 0,0 16 1.024,0
20:01 17,3 12,5 14,9 73,0 8,4 307 - 0,0 18 1.023,9
20:00 17,3 12,5 14,9 73,0 8,7 300 - 0,0 19 1.023,8
 
19:59 17,3 12,7 15,0 73,8 8,7 299 - 0,0 20 1.023,8
19:58 17,4 12,9 15,2 75,0 7,9 290 - 0,0 23 1.023,9
19:57 17,4 12,9 15,2 75,0 6,8 304 - 0,0 22 1.024,1
19:56 17,3 12,8 15,1 74,6 6,4 297 - 0,0 21 1.024,2
19:55 17,3 12,8 15,1 74,6 6,5 305 - 0,0 21 1.024,2
19:54 17,3 12,8 15,1 74,3 6,5 292 - 0,0 21 1.024,2
19:53 17,3 12,7 15,1 74,0 6,5 302 - 0,0 24 1.024,2
19:52 17,3 12,7 15,0 74,0 6,6 305 - 0,0 26 1.024,2
19:51 17,3 12,7 15,0 74,0 6,8 304 - 0,0 27 1.024,1
19:50 17,3 12,7 15,0 74,0 6,9 284 - 0,0 28 1.024,1
19:49 17,3 12,7 15,1 74,0 7,0 305 - 0,0 28 1.024,1
19:48 17,4 12,7 15,1 74,0 7,1 295 - 0,0 28 1.024,1
19:47 17,4 12,7 15,1 74,0 7,1 305 - 0,0 29 1.024,1
19:46 17,4 12,7 15,1 73,8 7,0 296 - 0,0 32 1.024,0
19:45 17,3 12,6 15,0 73,3 7,0 298 - 0,0 37 1.024,1
19:44 17,4 12,8 15,1 74,0 7,2 301 - 0,0 43 1.024,1
19:43 17,4 12,8 15,1 74,0 7,4 301 - 0,0 49 1.024,1
19:42 17,4 12,8 15,1 74,0 7,3 309 - 0,0 55 1.024,1
19:41 17,4 12,8 15,1 74,0 7,5 301 - 0,0 57 1.024,1
19:40 17,4 12,7 15,1 74,0 7,7 309 - 0,0 58 1.024,0
19:39 17,4 12,8 15,1 74,0 7,8 306 - 0,0 58 1.024,1
19:38 17,3 12,7 15,1 74,0 7,8 298 - 0,0 60 1.024,1
19:37 17,3 12,7 15,1 74,0 8,0 290 - 0,0 58 1.024,1
19:36 17,4 12,9 15,2 74,8 7,9 284 - 0,0 58 1.024,1
19:35 17,3 12,7 15,1 74,1 7,6 306 - 0,0 55 1.024,1
19:34 17,3 12,9 15,2 74,8 7,6 301 - 0,0 53 1.024,1
19:33 17,3 12,8 15,1 74,4 7,9 303 - 0,0 53 1.024,1
19:32 17,3 12,8 15,1 74,5 8,3 287 - 0,0 53 1.024,1
19:31 17,3 13,0 15,2 75,3 8,2 290 - 0,0 48 1.024,1
19:30 17,3 12,9 15,2 75,1 7,8 282 - 0,0 38 1.024,0
19:29 17,3 12,9 15,2 75,0 7,6 292 - 0,0 32 1.024,0
19:28 17,3 12,8 15,1 74,8 7,9 285 - 0,0 31 1.024,0
19:27 17,3 12,8 15,1 74,4 8,3 294 - 0,0 30 1.024,0
19:26 17,3 12,9 15,2 75,0 8,7 303 - 0,0 32 1.024,0
19:25 17,3 13,1 15,3 75,7 8,8 295 - 0,0 33 1.024,0
19:24 17,3 12,9 15,2 75,2 8,5 292 - 0,0 33 1.024,0
19:23 17,3 12,9 15,2 75,0 8,5 288 - 0,0 35 1.024,0
19:22 17,3 12,9 15,2 75,0 8,6 294 - 0,0 38 1.023,9
19:21 17,2 12,8 15,1 74,6 8,6 288 - 0,0 43 1.023,9
19:20 17,2 12,6 15,0 74,0 8,9 269 - 0,0 46 1.023,9
19:19 17,2 12,8 15,1 74,7 9,5 288 - 0,0 47 1.023,9
19:18 17,2 13,0 15,2 75,9 9,3 291 - 0,0 47 1.023,9
19:17 17,2 12,8 15,1 75,1 8,5 276 - 0,0 46 1.024,0
19:16 17,2 12,8 15,0 75,0 8,1 300 - 0,0 42 1.023,9
19:15 17,2 12,8 15,1 75,5 8,5 299 - 0,0 39 1.023,9
19:14 17,2 12,9 15,2 76,0 8,5 290 - 0,0 39 1.024,0
19:13 17,1 12,9 15,1 76,0 8,0 302 - 0,0 39 1.024,0
19:12 17,1 12,8 15,1 76,0 7,7 284 - 0,0 36 1.024,0
19:11 17,1 12,7 15,0 75,2 8,0 281 - 0,0 33 1.024,0
19:10 17,1 12,9 15,1 76,0 8,1 298 - 0,0 31 1.024,0
19:09 17,1 12,8 15,1 75,6 8,0 279 - 0,0 28 1.024,0
19:08 17,1 12,7 14,9 75,0 7,8 290 - 0,0 26 1.024,0
19:07 17,0 12,6 14,9 75,0 8,0 290 - 0,0 25 1.023,9
19:06 17,0 12,4 14,8 74,2 8,3 297 - 0,0 22 1.023,9
19:05 17,1 12,6 14,9 74,8 8,4 288 - 0,0 21 1.023,9
19:04 17,1 12,5 14,8 74,3 8,3 290 - 0,0 21 1.023,9
19:03 17,1 12,7 15,0 75,0 8,1 287 - 0,0 21 1.023,9
19:02 17,1 12,7 15,0 75,0 8,1 295 - 0,0 21 1.023,9
19:01 17,1 12,7 15,0 75,0 8,1 295 - 0,0 19 1.023,9
19:00 17,1 12,7 15,0 75,0 8,1 311 - 0,0 17 1.023,9
 
18:59 17,2 12,8 15,0 75,0 8,3 285 - 0,0 16 1.023,8
18:58 17,2 12,8 15,1 75,0 8,7 302 - 0,0 16 1.023,8
18:57 17,2 12,7 15,0 74,5 9,2 279 - 0,0 16 1.023,8
18:56 17,2 12,6 14,9 74,0 9,6 286 - 0,0 16 1.023,7
18:55 17,2 12,6 15,0 74,0 9,7 296 - 0,0 16 1.023,8
18:54 17,3 12,7 15,0 74,0 9,6 302 - 0,0 16 1.023,7
18:53 17,3 12,7 15,0 74,0 9,2 283 - 0,0 15 1.023,7
18:52 17,3 12,7 15,1 74,0 8,8 255 - 0,0 14 1.023,8
18:51 17,3 12,7 15,1 74,0 8,1 292 - 0,0 12 1.023,7
18:50 17,3 12,7 15,1 74,0 8,8 322 - 0,0 14 1.023,7
18:49 17,3 12,6 15,0 73,2 8,9 272 - 0,0 17 1.023,7
18:48 17,4 12,6 15,0 73,1 9,3 286 - 0,0 19 1.023,6
18:47 17,4 12,8 15,2 74,0 8,9 274 - 0,0 18 1.023,6
18:46 17,4 12,7 15,1 73,6 9,1 302 - 0,0 17 1.023,7
18:45 17,4 12,6 15,0 73,0 9,2 299 - 0,0 14 1.023,7
18:44 17,5 12,9 15,3 74,3 9,1 285 - 0,0 14 1.023,7
18:43 17,5 12,9 15,3 74,2 8,6 285 - 0,0 15 1.023,7
18:41 17,5 12,8 15,2 73,8 8,0 296 - 0,0 20 1.023,7
18:40 17,4 12,6 15,0 73,0 8,3 336 - 0,0 21 1.023,6
18:39 17,5 12,6 15,1 73,0 8,6 334 - 0,0 21 1.023,6
18:38 17,5 12,5 15,0 72,3 8,8 291 12,1 0,0 22 1.023,7
18:37 17,5 12,5 14,9 72,0 9,3 286 - 0,0 27 1.023,6
18:36 17,5 12,5 15,0 72,0 9,0 286 - 0,0 31 1.023,6
18:35 17,5 12,6 15,0 72,3 8,9 286 - 0,0 32 1.023,6
18:34 17,6 12,7 15,1 73,0 8,5 290 - 0,0 31 1.023,6
18:33 17,5 12,6 15,0 72,5 8,3 249 - 0,0 26 1.023,6
18:32 17,5 12,3 14,8 71,3 8,3 278 - 0,0 18 1.023,7
18:31 17,5 12,3 14,8 71,0 9,0 292 - 0,0 18 1.023,7
18:30 17,6 12,6 15,0 72,0 9,7 305 - 0,0 18 1.023,6
18:29 17,6 12,6 15,1 72,0 9,4 293 - 0,0 17 1.023,6
18:28 17,6 12,5 15,0 71,5 8,8 276 - 0,0 16 1.023,6
18:27 17,6 12,4 14,9 71,0 8,7 313 - 0,0 19 1.023,5
18:26 17,6 12,2 14,8 70,3 8,6 282 - 0,0 20 1.023,5
18:25 17,6 12,1 14,7 70,0 8,9 260 - 0,0 25 1.023,5
18:24 17,6 12,1 14,8 70,0 9,2 282 - 0,0 31 1.023,5
18:23 17,6 12,1 14,8 70,0 9,7 280 - 0,0 36 1.023,5
18:22 17,6 12,1 14,7 69,6 9,4 269 - 0,0 39 1.023,4
18:21 17,6 12,1 14,7 69,8 9,4 288 - 0,0 39 1.023,4
18:20 17,6 12,0 14,7 69,3 10,0 286 - 0,0 41 1.023,4
18:19 17,7 11,8 14,6 68,2 10,7 274 - 0,0 44 1.023,4
18:18 17,7 12,0 14,7 69,2 10,8 274 - 0,0 47 1.023,4
18:17 17,7 12,2 14,8 69,7 10,3 275 - 0,0 48 1.023,3
18:16 17,7 12,0 14,7 69,0 9,9 263 - 0,0 55 1.023,3
18:15 17,7 12,2 14,8 69,7 10,0 280 - 0,0 60 1.023,3
18:14 17,8 12,3 14,9 70,0 10,2 282 - 0,0 64 1.023,3
18:13 17,7 12,1 14,8 69,1 9,9 297 - 0,0 68 1.023,2
18:12 17,7 11,8 14,6 68,0 9,6 290 - 0,0 71 1.023,2
18:11 17,7 11,8 14,6 68,0 9,7 295 - 0,0 76 1.023,2
18:10 17,7 11,8 14,6 68,0 10,0 289 - 0,0 82 1.023,2
18:09 17,7 11,8 14,6 68,0 10,3 287 - 0,0 114 1.023,2
18:08 17,7 12,1 14,8 69,0 10,0 283 - 0,0 264 1.023,2
18:07 17,7 11,8 14,6 68,0 9,6 272 - 0,0 194 1.023,2
18:06 17,7 11,6 14,4 67,0 9,7 269 - 0,0 109 1.023,3
18:05 17,7 11,6 14,4 67,0 10,3 271 - 0,0 101 1.023,2
18:04 17,7 11,6 14,4 67,0 10,7 245 - 0,0 89 1.023,2
18:03 17,7 11,7 14,5 67,7 10,7 264 - 0,0 83 1.023,2
18:02 17,7 11,8 14,5 68,0 10,0 255 - 0,0 83 1.023,2
18:01 17,7 11,8 14,5 67,9 10,0 296 - 0,0 81 1.023,1
18:00 17,7 11,6 14,4 67,3 10,6 287 - 0,0 77 1.023,1
 
17:59 17,7 11,9 14,6 68,4 10,3 281 - 0,0 75 1.023,0
17:58 17,7 11,8 14,5 67,9 10,2 244 - 0,0 74 1.023,0
17:57 17,7 11,6 14,4 67,0 10,2 287 - 0,0 74 1.022,9
17:56 17,7 11,8 14,6 67,9 10,6 282 - 0,0 73 1.023,0
17:55 17,8 11,7 14,5 67,4 10,3 290 - 0,0 73 1.023,0
17:54 17,8 11,8 14,6 67,7 10,1 278 - 0,0 110 1.023,0
17:53 17,8 11,8 14,6 67,5 10,2 294 - 0,0 228 1.023,0
17:52 17,8 11,8 14,6 67,5 10,4 288 - 0,0 261 1.022,9
17:51 17,8 12,0 14,7 68,4 10,4 292 - 0,0 273 1.022,9
17:50 17,8 11,9 14,7 68,0 10,4 290 - 0,0 275 1.022,9
17:49 17,8 11,8 14,6 67,5 10,9 290 - 0,0 291 1.022,9
17:48 17,8 12,3 15,0 70,0 11,1 279 - 0,0 149 1.022,9
17:47 17,8 12,2 14,9 69,6 10,9 309 - 0,0 69 1.022,9
17:46 17,8 12,1 14,8 69,0 10,2 294 13,9 0,0 69 1.022,9
17:45 17,8 12,1 14,8 69,0 10,5 253 - 0,0 66 1.022,9
17:44 17,8 12,3 15,0 70,0 10,3 278 - 0,0 138 1.022,9
17:43 17,9 12,6 15,2 71,2 9,9 285 - 0,0 290 1.022,9
17:42 17,9 12,8 15,3 71,7 9,8 300 - 0,0 285 1.022,8
17:41 17,8 12,7 15,2 71,5 9,8 302 - 0,0 300 1.022,9
17:40 17,8 12,7 15,2 71,4 9,5 292 - 0,0 305 1.023,0
17:39 17,8 12,6 15,1 71,0 9,2 293 - 0,0 320 1.023,0
17:38 17,8 12,9 15,4 72,7 9,2 283 - 0,0 363 1.023,0
17:37 17,8 12,5 15,1 71,0 9,5 276 - 0,0 401 1.023,0
17:36 17,7 12,5 15,0 71,0 9,4 275 - 0,0 418 1.022,9
17:35 17,7 12,6 15,1 71,5 9,7 305 - 0,0 415 1.023,0
17:34 17,7 12,5 15,0 71,4 10,0 295 - 0,0 175 1.022,9
17:33 17,7 12,4 15,0 71,0 10,3 284 - 0,0 152 1.022,9
17:32 17,7 12,4 15,0 71,1 10,6 275 - 0,0 117 1.022,9
17:31 17,7 12,6 15,1 71,8 10,2 290 - 0,0 107 1.022,9
17:30 17,7 12,5 15,0 71,0 9,4 290 - 0,0 100 1.022,9
17:29 17,7 12,5 15,0 71,0 8,8 305 - 0,0 92 1.022,8
17:28 17,7 12,5 15,0 71,0 9,0 268 - 0,0 87 1.022,8
17:27 17,8 12,7 15,2 71,8 9,3 294 - 0,0 90 1.022,8
17:26 17,8 13,0 15,4 73,0 9,5 300 - 0,0 95 1.022,7
17:25 17,8 12,9 15,4 72,5 9,6 309 - 0,0 100 1.022,7
17:24 17,8 12,5 15,1 70,6 10,1 294 - 0,0 104 1.022,6
17:23 17,8 12,4 15,0 70,0 10,4 291 - 0,0 107 1.022,6
17:22 17,9 12,4 15,0 70,0 10,3 286 - 0,0 116 1.022,7
17:21 17,9 12,7 15,2 71,0 10,0 282 - 0,0 116 1.022,6
17:20 18,0 12,5 15,1 70,0 10,6 296 - 0,0 119 1.022,5
17:19 18,0 12,4 15,0 69,3 11,4 293 - 0,0 290 1.022,5
17:18 18,0 12,4 15,1 69,6 11,9 288 - 0,0 401 1.022,6
17:17 18,0 12,4 15,0 69,6 12,1 288 - 0,0 386 1.022,5
17:16 18,0 12,3 15,0 69,3 12,0 274 - 0,0 375 1.022,4
17:15 17,9 12,3 14,9 69,1 11,4 283 - 0,0 370 1.022,5
17:14 17,9 12,3 15,0 69,6 10,8 299 - 0,0 371 1.022,6
17:13 17,9 12,3 14,9 69,4 10,7 290 - 0,0 196 1.022,6
17:12 17,9 12,4 15,0 70,0 11,1 286 - 0,0 120 1.022,5
17:11 17,9 12,4 15,0 70,0 11,5 286 - 0,0 155 1.022,5
17:10 17,9 12,2 14,9 69,3 11,8 292 - 0,0 146 1.022,5
17:09 17,9 12,6 15,1 70,7 11,8 276 - 0,0 136 1.022,5
17:08 17,9 12,6 15,2 70,7 11,4 280 - 0,0 123 1.022,5
17:07 17,9 12,5 15,1 70,3 10,9 295 - 0,0 132 1.022,5
17:06 17,9 12,5 15,1 70,1 11,3 257 - 0,0 331 1.022,4
17:05 17,9 12,3 15,0 69,6 12,1 264 - 0,0 362 1.022,4
17:04 17,9 12,4 15,0 70,0 12,1 272 - 0,0 200 1.022,4
17:03 17,9 12,2 14,9 69,1 11,7 277 - 0,0 269 1.022,4
17:02 17,9 12,0 14,8 68,2 11,6 296 - 0,0 396 1.022,5
17:01 17,9 12,2 14,9 69,0 11,7 274 - 0,0 396 1.022,4
17:00 17,8 12,2 14,8 69,0 11,6 284 - 0,0 231 1.022,4
 
16:59 17,8 12,2 14,8 69,0 11,7 284 - 0,0 187 1.022,3
16:58 17,9 12,8 15,3 72,0 11,4 283 - 0,0 126 1.022,4
16:57 17,9 13,1 15,5 73,0 9,9 266 13,4 0,0 119 1.022,5
16:56 17,9 12,8 15,3 72,0 8,7 319 - 0,0 104 1.022,5
16:55 17,8 12,6 15,1 71,0 8,8 286 - 0,0 201 1.022,5
16:54 17,8 12,4 15,0 70,0 9,3 291 - 0,0 243 1.022,4
16:53 17,9 12,5 15,1 70,7 10,1 286 - 0,0 159 1.022,5
16:52 17,9 12,8 15,3 71,8 10,8 285 - 0,0 172 1.022,5
16:51 18,0 12,9 15,4 72,0 11,0 285 - 0,0 314 1.022,4
16:50 18,0 13,0 15,5 72,2 10,5 269 - 0,0 513 1.022,4
16:49 18,0 13,1 15,6 72,7 9,3 268 - 0,0 513 1.022,4
16:48 18,0 12,9 15,4 72,0 8,7 298 - 0,0 513 1.022,4
16:47 17,9 12,7 15,2 71,2 9,3 293 - 0,0 276 1.022,4
16:46 17,9 12,6 15,2 71,0 9,8 292 - 0,0 264 1.022,4
16:45 17,9 12,9 15,4 72,1 9,8 274 - 0,0 274 1.022,4
16:44 18,0 13,1 15,6 73,0 9,1 298 - 0,0 258 1.022,4
16:43 18,0 13,1 15,5 73,0 8,3 253 - 0,0 253 1.022,4
16:42 17,9 13,0 15,4 72,5 8,1 297 - 0,0 214 1.022,4
16:41 17,9 12,7 15,2 71,3 9,0 304 - 0,0 200 1.022,4
16:40 17,9 12,8 15,3 71,8 9,8 294 - 0,0 200 1.022,3
16:39 17,9 12,9 15,3 71,9 10,4 305 - 0,0 178 1.022,3
16:38 17,9 12,7 15,2 71,0 11,1 273 - 0,0 143 1.022,3
16:37 18,0 12,8 15,3 71,4 11,8 281 - 0,0 139 1.022,4
16:36 18,0 13,1 15,5 72,6 11,4 282 - 0,0 500 1.022,3
16:35 17,9 12,8 15,3 71,6 10,5 278 - 0,0 467 1.022,3
16:34 17,9 12,8 15,3 72,0 9,8 289 - 0,0 176 1.022,3
16:33 17,9 12,7 15,2 71,1 9,6 283 - 0,0 166 1.022,4
16:32 17,9 12,7 15,2 71,0 9,6 296 - 0,0 155 1.022,3
16:31 17,9 12,7 15,2 71,0 9,9 296 - 0,0 176 1.022,3
16:30 17,9 12,8 15,3 71,6 9,9 291 - 0,0 178 1.022,3
16:29 18,0 12,6 15,2 70,6 9,8 292 - 0,0 156 1.022,2
16:28 17,9 12,5 15,1 70,0 10,1 287 - 0,0 148 1.022,2
16:27 18,0 12,7 15,3 71,0 10,4 292 - 0,0 181 1.022,2
16:26 18,0 12,8 15,3 71,0 10,4 267 - 0,0 170 1.022,2
16:25 18,1 12,8 15,4 71,0 9,9 291 - 0,0 139 1.022,2
16:24 18,1 12,7 15,3 70,4 9,7 284 - 0,0 137 1.022,2
16:23 18,1 12,5 15,2 69,3 10,1 292 - 0,0 140 1.022,2
16:22 18,2 12,7 15,3 70,0 10,5 270 - 0,0 145 1.022,2
16:21 18,3 13,3 15,7 72,0 9,9 282 - 0,0 382 1.022,1
16:20 18,3 13,2 15,7 71,7 9,3 311 - 0,0 613 1.022,1
16:19 18,2 12,7 15,4 70,1 9,1 290 - 0,0 613 1.022,1
16:18 18,2 12,5 15,2 69,0 9,5 284 - 0,0 295 1.022,1
16:17 18,2 12,9 15,4 70,5 10,0 276 - 0,0 278 1.022,0
16:16 18,2 12,6 15,3 69,3 10,5 257 - 0,0 278 1.022,0
16:15 18,3 12,8 15,4 70,2 10,8 285 - 0,0 314 1.022,0
16:14 18,3 12,9 15,5 70,7 10,5 285 - 0,0 508 1.022,1
16:13 18,3 12,8 15,4 70,0 9,9 265 - 0,0 578 1.022,1
16:12 18,3 12,8 15,4 70,0 10,0 291 - 0,0 620 1.022,0
16:11 18,3 12,9 15,5 70,0 10,5 282 - 0,0 567 1.022,0
16:10 18,3 12,8 15,4 69,9 10,5 283 - 0,0 504 1.022,0
16:09 18,3 12,4 15,1 68,2 10,7 292 - 0,0 438 1.022,0
16:08 18,3 12,5 15,2 68,7 11,0 274 - 0,0 229 1.021,9
16:07 18,3 12,2 15,0 67,5 11,7 291 - 0,0 139 1.021,9
16:06 18,3 12,6 15,3 69,0 11,9 288 - 0,0 158 1.021,8
16:05 18,4 12,5 15,3 68,4 11,9 289 - 0,0 524 1.021,8
16:04 18,3 12,4 15,2 67,9 11,9 267 - 0,0 548 1.021,8
16:03 18,4 12,3 15,1 67,5 12,6 257 - 0,0 578 1.021,8
16:02 18,4 12,8 15,5 69,4 12,6 273 - 0,0 578 1.021,8
16:01 18,4 12,8 15,5 69,5 11,9 265 - 0,0 568 1.021,9
16:00 18,4 12,5 15,3 68,3 11,2 278 - 0,0 534 1.021,9
 
15:59 18,4 12,8 15,5 69,6 10,5 270 - 0,0 509 1.021,9
15:58 18,4 12,9 15,5 69,9 10,3 293 - 0,0 497 1.021,8
15:57 18,3 12,6 15,3 68,8 10,5 297 - 0,0 492 1.021,8
15:56 18,3 12,4 15,2 68,0 11,2 272 - 0,0 490 1.021,7
15:55 18,3 12,3 15,1 67,5 11,7 269 - 0,0 494 1.021,7
15:54 18,3 12,5 15,2 68,4 11,5 293 - 0,0 494 1.021,7
15:53 18,3 12,4 15,2 68,2 11,3 274 - 0,0 492 1.021,7
15:52 18,3 12,6 15,3 69,0 11,3 278 - 0,0 492 1.021,7
15:51 18,3 12,6 15,3 68,7 11,3 265 - 0,0 495 1.021,7
15:50 18,3 12,5 15,3 68,6 11,3 282 - 0,0 495 1.021,7
15:49 18,4 12,8 15,4 69,6 11,0 271 - 0,0 496 1.021,7
15:48 18,3 12,9 15,5 70,0 10,9 286 - 0,0 496 1.021,7
15:47 18,3 12,8 15,4 70,0 10,9 273 - 0,0 497 1.021,7
15:46 18,3 12,6 15,3 68,9 11,8 245 - 0,0 500 1.021,7
15:45 18,3 12,5 15,2 68,6 12,7 269 - 0,0 499 1.021,7
15:44 18,3 12,9 15,5 70,5 12,4 265 15,6 0,0 499 1.021,7
15:43 18,3 12,8 15,4 69,8 12,0 304 - 0,0 491 1.021,7
15:42 18,3 13,0 15,5 70,5 11,8 287 15,2 0,0 507 1.021,7
15:41 18,4 13,1 15,6 71,0 12,0 267 - 0,0 518 1.021,7
15:40 18,4 13,2 15,7 71,2 11,7 281 - 0,0 547 1.021,7
15:39 18,4 13,4 15,8 72,3 11,5 289 - 0,0 568 1.021,6
15:38 18,4 13,3 15,8 72,1 11,8 293 - 0,0 591 1.021,6
15:37 18,3 12,9 15,5 70,4 12,1 294 15,2 0,0 556 1.021,6
15:36 18,3 12,8 15,4 70,0 13,1 261 - 0,0 528 1.021,5
15:35 18,3 13,0 15,6 70,9 13,5 271 - 0,0 523 1.021,5
15:34 18,3 13,0 15,6 71,0 13,0 279 - 0,0 524 1.021,4
15:33 18,2 12,9 15,4 70,5 12,8 284 - 0,0 531 1.021,5
15:32 18,2 12,9 15,4 70,5 13,1 276 - 0,0 534 1.021,5
15:31 18,2 13,1 15,6 71,7 13,3 269 - 0,0 554 1.021,5
15:30 18,3 13,0 15,6 71,2 12,9 275 - 0,0 555 1.021,5
15:29 18,3 13,2 15,7 72,0 12,1 265 - 0,0 555 1.021,5
15:28 18,3 13,2 15,7 71,8 9,8 261 - 0,0 555 1.021,5
15:27 18,2 13,0 15,5 71,0 8,3 190 13,4 0,0 543 1.021,5
15:26 18,2 12,9 15,5 71,0 9,0 294 14,3 0,0 535 1.021,5
15:25 18,2 12,9 15,5 71,0 12,3 271 - 0,0 528 1.021,5
15:24 18,2 13,1 15,6 71,8 12,1 272 - 0,0 532 1.021,5
15:23 18,2 13,1 15,6 71,9 11,6 263 - 0,0 530 1.021,6
15:22 18,2 13,0 15,5 71,3 11,4 290 - 0,0 528 1.021,4
15:21 18,2 13,3 15,7 72,4 11,8 268 - 0,0 529 1.021,5
15:20 18,3 13,4 15,8 73,0 11,7 273 - 0,0 529 1.021,5
15:19 18,3 13,4 15,8 73,0 11,4 281 - 0,0 533 1.021,4
15:18 18,2 13,4 15,8 73,0 11,6 286 - 0,0 537 1.021,4
15:17 18,3 13,4 15,8 72,9 11,6 278 - 0,0 541 1.021,5
15:16 18,2 13,2 15,6 72,0 11,5 267 - 0,0 541 1.021,4
15:15 18,2 13,0 15,6 71,6 11,8 274 - 0,0 544 1.021,4
15:14 18,2 13,0 15,6 71,6 12,6 272 - 0,0 555 1.021,4
15:13 18,2 13,0 15,5 71,3 12,8 257 - 0,0 577 1.021,4
15:12 18,2 13,1 15,6 71,9 12,0 279 - 0,0 601 1.021,3
15:11 18,2 13,1 15,6 71,7 12,0 290 - 0,0 601 1.021,4
15:10 18,2 12,8 15,4 70,6 12,5 278 - 0,0 601 1.021,4
15:09 18,2 13,1 15,6 72,0 13,1 278 - 0,0 601 1.021,4
15:08 18,2 13,2 15,7 72,6 12,8 274 - 0,0 273 1.021,4
15:07 18,2 13,2 15,6 72,3 12,5 271 - 0,0 309 1.021,4
15:06 18,2 13,3 15,7 72,9 12,8 277 - 0,0 603 1.021,4
15:05 18,2 13,8 16,1 75,6 12,5 278 - 0,0 587 1.021,3
15:04 18,1 13,5 15,8 74,0 11,5 278 - 0,0 566 1.021,4
15:03 18,0 13,3 15,6 73,4 11,3 273 - 0,0 564 1.021,4
15:02 17,9 13,1 15,5 73,0 11,9 284 - 0,0 569 1.021,4
15:01 17,8 13,0 15,4 73,0 12,0 260 - 0,0 485 1.021,4
15:00 17,8 13,0 15,4 73,0 11,7 270 - 0,0 123 1.021,4
 
14:59 17,8 13,0 15,4 73,1 11,6 267 - 0,0 169 1.021,4
14:58 17,8 13,1 15,5 74,0 11,7 286 - 0,0 156 1.021,4
14:57 17,8 13,1 15,5 74,0 11,6 284 - 0,0 124 1.021,5
14:56 17,7 13,0 15,4 73,4 11,1 274 - 0,0 129 1.021,4
14:55 17,8 12,9 15,3 73,0 11,1 257 - 0,0 142 1.021,4
14:54 17,8 12,9 15,4 73,0 11,3 284 - 0,0 151 1.021,4
14:53 17,8 13,0 15,4 73,0 12,4 288 - 0,0 151 1.021,3
14:52 17,8 13,1 15,5 73,4 12,5 283 - 0,0 151 1.021,3
14:51 17,9 13,1 15,5 73,5 12,2 273 - 0,0 151 1.021,3
14:50 17,9 13,1 15,5 73,0 12,1 274 - 0,0 148 1.021,2
14:49 18,0 13,0 15,4 72,2 12,4 285 - 0,0 157 1.021,2
14:48 18,0 12,8 15,3 71,1 12,6 272 - 0,0 193 1.021,2
14:47 18,0 12,8 15,3 71,0 12,5 286 - 0,0 153 1.021,2
14:46 18,1 12,9 15,5 71,4 12,3 281 - 0,0 518 1.021,3
14:45 18,2 13,3 15,7 72,5 12,3 282 - 0,0 684 1.021,2
14:44 18,2 13,5 15,9 73,7 12,2 276 - 0,0 691 1.021,3
14:43 18,2 13,6 15,9 74,0 11,7 269 - 0,0 588 1.021,2
14:42 18,2 13,3 15,7 73,0 11,6 289 - 0,0 276 1.021,2
14:41 18,2 13,2 15,6 72,3 12,0 269 - 0,0 276 1.021,3
14:40 18,2 13,3 15,7 73,0 12,3 294 - 0,0 276 1.021,2
14:39 18,1 13,1 15,5 71,9 12,7 282 - 0,0 276 1.021,2
14:38 18,1 12,9 15,4 71,7 13,0 290 - 0,0 276 1.021,2
14:37 18,1 13,0 15,5 72,0 13,2 261 - 0,0 266 1.021,3
14:36 18,1 12,8 15,4 71,2 13,5 267 - 0,0 245 1.021,3
14:35 18,1 13,0 15,5 72,0 13,5 269 - 0,0 275 1.021,2
14:34 18,1 13,0 15,5 72,0 13,4 263 - 0,0 298 1.021,1
14:33 18,0 13,0 15,4 72,0 13,1 282 - 0,0 281 1.021,2
14:32 18,1 13,3 15,7 73,4 12,9 295 - 0,0 268 1.021,2
14:31 18,0 13,0 15,5 72,3 12,4 274 - 0,0 227 1.021,1
14:30 18,0 13,0 15,5 72,4 12,6 294 - 0,0 219 1.021,1
14:29 18,0 13,3 15,7 73,4 13,0 274 - 0,0 202 1.021,1
14:28 18,0 13,1 15,5 72,6 13,3 261 - 0,0 193 1.021,1
14:27 18,1 13,4 15,8 73,8 13,1 244 - 0,0 200 1.021,0
14:26 18,2 13,5 15,9 74,0 12,4 257 - 0,0 229 1.021,0
14:25 18,2 13,4 15,8 73,2 12,1 273 - 0,0 427 1.021,0
14:24 18,2 13,3 15,8 72,9 12,3 268 - 0,0 795 1.021,0
14:23 18,2 13,2 15,7 72,3 12,6 259 - 0,0 795 1.021,0
14:22 18,2 13,3 15,7 73,0 12,9 267 - 0,0 766 1.021,0
14:21 18,1 13,4 15,8 73,8 12,8 269 - 0,0 715 1.020,9
14:20 18,1 13,5 15,9 74,0 12,1 253 - 0,0 520 1.021,0
14:19 18,1 13,4 15,8 74,0 11,3 272 - 0,0 424 1.021,1
14:18 18,1 13,1 15,6 72,7 11,2 259 - 0,0 244 1.021,0
14:17 18,1 13,2 15,6 72,8 11,2 271 - 0,0 220 1.021,0
14:16 18,0 13,1 15,5 72,4 11,3 277 - 0,0 213 1.021,0
14:15 18,0 12,9 15,4 72,0 11,4 280 - 0,0 213 1.021,0
14:14 18,0 12,9 15,4 72,0 11,5 273 - 0,0 213 1.021,0
14:13 18,0 12,7 15,3 71,1 11,7 260 - 0,0 398 1.020,9
14:12 18,0 12,8 15,3 71,2 12,0 263 - 0,0 675 1.020,8
14:11 18,0 13,0 15,4 72,0 12,3 253 - 0,0 654 1.020,9
14:10 18,0 13,0 15,5 72,0 11,7 258 - 0,0 637 1.020,9
14:09 18,0 12,9 15,4 72,0 11,3 275 - 0,0 637 1.020,8
14:08 17,9 12,6 15,2 71,1 11,7 280 - 0,0 647 1.020,8
14:07 17,9 12,6 15,2 71,1 12,3 272 - 0,0 631 1.021,0
14:06 17,9 12,8 15,3 72,0 12,9 249 - 0,0 631 1.020,9
14:05 17,9 12,8 15,3 72,0 12,6 268 - 0,0 626 1.020,7
14:04 17,9 12,6 15,2 71,0 12,7 296 - 0,0 539 1.020,7
14:03 17,9 12,7 15,2 71,3 11,2 258 14,3 0,0 524 1.020,8
14:02 17,9 12,9 15,3 72,0 11,6 208 15,2 0,0 453 1.020,7
14:01 17,9 12,6 15,2 71,1 12,1 281 15,6 0,0 287 1.020,7
14:00 17,9 12,6 15,2 71,0 13,7 255 - 0,0 261 1.020,6
 
13:59 17,9 12,6 15,2 71,0 14,1 249 - 0,0 244 1.020,6
13:58 17,9 12,6 15,1 71,0 14,2 268 - 0,0 244 1.020,6
13:57 17,9 12,5 15,1 70,3 14,3 272 - 0,0 193 1.020,7
13:56 17,9 12,8 15,3 71,6 13,8 269 - 0,0 222 1.020,8
13:55 17,9 12,6 15,2 71,0 13,4 261 - 0,0 227 1.020,8
13:54 17,9 12,4 15,0 69,8 13,7 239 - 0,0 223 1.020,7
13:53 17,9 12,2 14,9 69,0 14,0 247 - 0,0 221 1.020,7
13:52 17,9 12,2 14,9 69,0 14,1 249 - 0,0 221 1.020,7
13:51 17,9 12,2 14,9 69,0 13,6 256 - 0,0 220 1.020,7
13:50 17,9 12,4 15,0 69,9 13,5 223 - 0,0 248 1.020,7
13:49 18,0 12,5 15,1 70,0 13,4 253 - 0,0 252 1.020,7
13:48 18,0 12,6 15,2 70,3 13,9 263 - 0,0 237 1.020,6
13:47 18,1 12,8 15,3 71,0 13,4 273 - 0,0 242 1.020,7
13:46 18,1 12,6 15,2 69,9 12,7 272 - 0,0 253 1.020,8
13:45 18,1 12,7 15,3 70,4 12,0 278 - 0,0 365 1.020,8
13:44 18,1 12,6 15,2 70,2 11,7 276 - 0,0 777 1.020,7
13:43 18,0 12,5 15,1 70,0 11,8 265 - 0,0 730 1.020,7
13:42 17,9 12,5 15,1 70,0 12,0 269 - 0,0 389 1.020,7
13:41 17,9 12,4 15,0 70,0 12,0 282 - 0,0 223 1.020,7
13:40 17,9 12,7 15,2 71,3 11,6 286 - 0,0 223 1.020,7
13:39 17,9 12,7 15,2 71,3 10,9 271 - 0,0 219 1.020,6
13:38 17,8 12,4 15,0 70,1 11,3 264 - 0,0 205 1.020,6
13:37 17,8 12,4 15,0 70,2 12,1 269 - 0,0 203 1.020,6
13:36 17,8 12,6 15,1 71,0 12,5 274 - 0,0 248 1.020,6
13:35 17,8 12,7 15,2 71,5 12,2 287 - 0,0 272 1.020,7
13:34 17,9 13,1 15,5 73,2 11,6 282 - 0,0 284 1.020,7
13:33 17,9 13,1 15,5 73,3 10,8 285 - 0,0 392 1.020,7
13:32 17,8 12,8 15,3 72,1 10,4 280 - 0,0 392 1.020,6
13:31 17,8 12,8 15,2 72,2 10,6 286 - 0,0 442 1.020,6
13:30 17,8 12,9 15,3 73,0 10,8 267 - 0,0 327 1.020,5
13:29 17,8 12,9 15,3 73,0 10,9 286 - 0,0 260 1.020,5
13:28 17,8 12,9 15,4 73,0 10,8 287 - 0,0 250 1.020,5
13:27 17,8 13,1 15,5 73,8 10,4 297 - 0,0 339 1.020,6
13:26 17,8 13,0 15,4 73,1 9,2 288 - 0,0 564 1.020,6
13:25 17,7 12,9 15,3 73,0 8,2 244 11,2 0,0 408 1.020,5
13:24 17,7 12,8 15,3 73,0 8,3 323 - 0,0 281 1.020,5
13:23 17,7 12,8 15,3 73,0 9,4 285 - 0,0 281 1.020,4
13:22 17,7 12,8 15,3 73,0 10,0 285 - 0,0 281 1.020,4
13:21 17,7 12,8 15,3 73,0 10,4 292 - 0,0 256 1.020,5
13:20 17,7 12,8 15,3 73,0 10,9 297 - 0,0 185 1.020,4
13:19 17,7 12,9 15,3 73,3 11,8 288 - 0,0 166 1.020,2
13:18 17,8 13,1 15,5 73,6 12,4 298 - 0,0 167 1.020,2
13:17 17,8 13,1 15,5 73,6 12,4 282 - 0,0 179 1.020,3
13:16 17,9 13,1 15,5 73,3 12,2 286 - 0,0 205 1.020,2
13:15 17,9 13,2 15,6 73,8 12,2 292 - 0,0 254 1.020,1
13:14 17,9 13,2 15,6 73,8 12,4 269 - 0,0 535 1.020,1
13:13 17,8 12,8 15,3 72,3 12,9 292 - 0,0 809 1.020,0
13:12 17,8 13,1 15,5 73,4 13,3 268 - 0,0 787 1.020,1
13:11 17,8 13,2 15,6 74,0 13,3 268 - 0,0 759 1.020,1
13:10 17,8 13,0 15,4 73,3 12,9 271 - 0,0 740 1.020,1
13:09 17,8 12,9 15,4 73,0 13,1 286 - 0,0 749 1.020,1
13:08 17,8 12,9 15,4 73,0 13,7 267 - 0,0 493 1.020,1
13:07 17,8 12,9 15,4 73,0 14,2 274 - 0,0 236 1.020,1
13:06 17,8 13,2 15,5 73,9 14,5 255 - 0,0 236 1.020,0
13:05 17,8 13,3 15,6 74,5 13,9 261 - 0,0 236 1.019,9
13:04 17,8 13,1 15,5 73,3 13,4 282 - 0,0 236 1.019,9
13:03 17,8 12,8 15,3 72,2 13,1 288 - 0,0 223 1.019,9
13:02 17,8 12,5 15,1 71,1 13,2 264 - 0,0 203 1.019,9
13:01 17,8 12,5 15,0 70,7 13,4 267 - 0,0 237 1.020,0
13:00 17,7 12,4 15,0 70,5 13,4 266 - 0,0 259 1.019,9
 
12:59 17,7 12,3 14,9 70,4 13,7 267 - 0,0 260 1.019,8
12:58 17,6 12,7 15,1 72,6 13,8 261 - 0,0 260 1.019,8
12:57 17,6 13,0 15,4 74,5 13,8 292 - 0,0 260 1.019,8
12:56 17,6 13,3 15,6 76,1 13,5 274 - 0,0 247 1.019,9
12:55 17,6 13,5 15,7 77,0 13,4 257 - 0,0 236 1.020,2
12:54 17,5 13,4 15,6 76,6 12,8 260 - 0,0 236 1.020,1
12:53 17,6 13,5 15,7 76,6 12,0 255 - 0,0 236 1.020,0
12:52 17,6 13,6 15,7 77,0 11,4 242 - 0,0 236 1.020,0
12:51 17,6 13,6 15,8 77,0 10,5 274 - 0,0 236 1.020,0
12:50 17,7 13,4 15,6 75,6 10,3 213 - 0,0 277 1.020,0
12:49 17,7 13,0 15,4 74,0 11,1 254 - 0,0 311 1.019,9
12:48 17,6 13,0 15,3 74,0 12,1 265 - 0,0 311 1.019,9
12:47 17,6 12,9 15,2 73,4 12,0 236 - 0,0 218 1.020,0
12:46 17,6 12,9 15,3 73,8 12,0 274 - 0,0 228 1.019,9
12:45 17,6 12,8 15,2 73,2 12,7 252 - 0,0 332 1.019,7
12:44 17,6 12,9 15,3 73,8 13,0 276 - 0,0 291 1.019,8
12:43 17,6 12,8 15,2 73,4 13,1 273 - 0,0 219 1.019,8
12:42 17,6 13,1 15,4 74,5 12,1 278 - 0,0 202 1.019,8
12:41 17,6 13,0 15,4 74,4 12,1 233 - 0,0 210 1.019,8
12:40 17,6 12,9 15,3 74,0 12,8 265 - 0,0 219 1.019,7
12:39 17,6 13,3 15,5 75,8 13,2 261 - 0,0 253 1.019,6
12:38 17,5 13,1 15,4 75,3 13,2 283 - 0,0 268 1.019,7
12:37 17,5 13,4 15,6 76,6 12,9 268 - 0,0 236 1.019,7
12:36 17,4 13,4 15,6 77,0 12,7 261 - 0,0 165 1.019,6
12:35 17,4 13,5 15,7 77,7 12,3 271 - 0,0 225 1.019,7
12:34 17,4 13,8 15,8 78,8 12,1 285 - 0,0 229 1.019,7
12:33 17,3 13,5 15,6 78,2 11,5 294 - 0,0 229 1.019,6
12:32 17,3 13,6 15,7 78,8 11,9 246 - 0,0 221 1.019,5
12:31 17,3 13,6 15,6 78,8 12,5 271 - 0,0 226 1.019,6
12:30 17,2 13,7 15,7 79,5 12,2 256 - 0,0 229 1.019,6
12:29 17,2 13,6 15,6 79,0 12,4 275 - 0,0 229 1.019,6
12:28 17,2 13,5 15,6 79,0 13,0 267 - 0,0 229 1.019,6
12:27 17,2 13,6 15,6 79,2 13,0 261 - 0,0 223 1.019,5
12:26 17,2 13,8 15,8 80,0 12,1 255 - 0,0 196 1.019,5
12:25 17,3 13,9 15,9 80,4 11,5 271 - 0,0 183 1.019,5
12:24 17,3 14,0 16,0 81,0 11,7 245 - 0,0 182 1.019,5
12:23 17,3 13,9 15,9 80,3 12,4 246 - 0,0 162 1.019,5
12:22 17,2 13,6 15,6 79,2 12,0 259 - 0,0 173 1.019,5
12:21 17,2 13,7 15,7 79,7 11,9 212 15,2 0,0 179 1.019,5
12:20 17,2 13,6 15,7 79,3 12,0 261 - 0,0 179 1.019,4
12:19 17,2 13,6 15,7 79,6 13,5 268 - 0,0 179 1.019,3
12:18 17,2 13,6 15,7 79,6 13,7 268 - 0,0 183 1.019,3
12:17 17,1 13,7 15,7 80,0 13,5 239 - 0,0 183 1.019,4
12:16 17,1 13,7 15,7 80,0 12,5 253 - 0,0 181 1.019,5
12:15 17,1 13,5 15,5 79,2 11,7 276 - 0,0 172 1.019,5
12:14 17,1 13,7 15,7 80,0 11,4 276 - 0,0 164 1.019,6
12:13 17,1 13,8 15,7 80,5 11,5 276 - 0,0 165 1.019,5
12:12 17,1 13,9 15,8 81,0 11,9 280 - 0,0 161 1.019,5
12:11 17,1 13,9 15,8 81,0 11,4 284 - 0,0 345 1.019,5
12:10 17,1 13,8 15,8 81,1 11,3 237 - 0,0 759 1.019,5
12:09 17,1 14,0 15,9 82,0 11,0 266 - 0,0 759 1.019,5
12:08 17,0 13,8 15,8 81,7 11,7 294 - 0,0 759 1.019,4
12:07 16,9 13,6 15,6 81,0 12,3 286 - 0,0 681 1.019,4
12:06 16,8 13,6 15,5 81,0 13,0 275 - 0,0 202 1.019,4
12:05 16,8 13,7 15,6 81,8 13,4 263 - 0,0 178 1.019,3
12:04 16,8 13,5 15,5 81,1 13,3 258 - 0,0 164 1.019,3
12:03 16,8 13,5 15,5 81,0 12,7 287 - 0,0 130 1.019,3
12:02 16,9 13,7 15,6 81,0 12,6 285 - 0,0 108 1.019,3
12:01 17,0 13,7 15,7 80,5 12,7 292 - 0,0 107 1.019,3
12:00 17,0 13,6 15,6 80,0 13,5 270 - 0,0 112 1.019,3
 
11:59 17,1 13,5 15,5 79,1 14,2 258 - 0,0 99 1.019,2
11:58 17,3 13,8 15,8 79,9 14,2 287 17,4 0,0 78 1.019,2
11:57 17,4 13,7 15,8 79,0 14,0 283 - 0,0 74 1.019,2
11:56 17,3 13,6 15,7 78,6 14,3 263 - 0,0 80 1.019,1
11:55 17,3 13,5 15,6 78,0 14,7 258 - 0,0 90 1.019,2
11:54 17,3 13,4 15,5 77,4 13,7 281 - 0,0 109 1.019,2
11:53 17,3 13,5 15,6 77,8 13,3 222 - 0,0 167 1.019,0
11:52 17,4 13,4 15,6 77,3 13,8 255 - 0,0 260 1.018,9
11:51 17,4 13,7 15,8 78,5 13,8 257 - 0,0 260 1.018,9
11:50 17,5 13,6 15,7 77,8 14,0 233 - 0,0 247 1.018,9
11:49 17,5 13,6 15,8 77,6 14,7 233 - 0,0 222 1.018,9
11:48 17,6 13,4 15,6 76,3 14,0 239 - 0,0 205 1.019,0
11:47 17,6 13,4 15,6 76,0 13,5 282 - 0,0 188 1.019,0
11:46 17,6 13,2 15,5 75,1 13,8 242 - 0,0 181 1.019,0
11:45 17,6 13,2 15,5 75,0 14,8 244 - 0,0 175 1.019,0
11:44 17,6 13,1 15,4 74,6 14,8 236 - 0,0 167 1.018,9
11:43 17,6 13,1 15,4 74,6 14,7 261 - 0,0 145 1.019,0
11:42 17,7 13,3 15,5 75,0 14,9 264 - 0,0 124 1.018,9
11:41 17,7 13,5 15,7 75,9 14,3 262 - 0,0 116 1.019,0
11:40 17,7 13,4 15,7 75,7 13,5 264 - 0,0 110 1.019,0
11:39 17,7 13,3 15,6 75,0 13,1 276 - 0,0 108 1.018,9
11:38 17,7 13,1 15,4 74,1 12,8 265 - 0,0 106 1.018,9
11:37 17,7 13,0 15,3 73,6 12,5 288 - 0,0 104 1.018,9
11:36 17,7 12,7 15,2 72,5 12,8 267 - 0,0 134 1.018,9
11:35 17,6 12,4 14,9 71,2 13,5 264 - 0,0 136 1.018,9
11:34 17,6 12,7 15,1 72,5 13,7 253 - 0,0 147 1.018,9
11:33 17,7 13,2 15,5 74,7 12,7 256 - 0,0 161 1.018,9
11:32 17,7 13,0 15,4 74,0 12,4 290 - 0,0 170 1.018,9
11:31 17,6 13,0 15,4 74,0 12,7 277 - 0,0 160 1.018,8
11:30 17,6 12,8 15,2 73,3 13,0 294 - 0,0 155 1.018,7
11:29 17,6 12,8 15,2 73,1 13,2 274 - 0,0 164 1.018,8
11:28 17,6 13,0 15,4 74,0 13,5 264 - 0,0 160 1.018,8
11:27 17,6 12,9 15,3 73,7 12,8 276 - 0,0 142 1.018,9
11:26 17,6 12,7 15,1 72,5 12,1 278 - 0,0 499 1.018,8
11:25 17,5 12,5 14,9 72,0 12,3 249 - 0,0 560 1.018,7
11:24 17,5 12,5 15,0 72,0 13,0 284 - 0,0 530 1.018,6
11:23 17,5 12,8 15,2 73,8 13,5 271 - 0,0 510 1.018,6
11:22 17,5 12,9 15,3 74,2 13,4 275 - 0,0 378 1.018,7
11:21 17,5 13,1 15,4 75,0 13,4 274 - 0,0 285 1.018,7
11:20 17,5 13,2 15,5 75,5 13,0 287 - 0,0 225 1.018,8
11:19 17,5 13,2 15,4 75,4 12,2 257 - 0,0 127 1.018,8
11:18 17,4 12,9 15,2 74,2 12,5 244 - 0,0 98 1.018,8
11:17 17,4 12,9 15,2 74,3 12,9 247 - 0,0 93 1.018,7
11:16 17,5 13,1 15,4 75,0 12,9 262 - 0,0 94 1.018,7
11:15 17,5 13,0 15,3 74,6 12,3 241 - 0,0 99 1.018,6
11:14 17,5 13,0 15,3 74,6 11,9 284 - 0,0 100 1.018,7
11:13 17,5 12,9 15,3 74,4 12,1 254 - 0,0 92 1.018,7
11:12 17,5 12,8 15,2 74,0 12,3 253 - 0,0 83 1.018,7
11:11 17,5 12,8 15,2 73,8 12,5 257 - 0,0 83 1.018,7
11:10 17,4 12,5 15,0 72,5 12,7 269 - 0,0 87 1.018,4
11:09 17,5 12,8 15,2 73,6 13,0 287 - 0,0 92 1.018,5
11:08 17,5 12,5 15,0 72,5 13,0 271 - 0,0 104 1.018,6
11:07 17,4 12,6 15,0 72,7 13,3 276 - 0,0 122 1.018,6
11:06 17,4 12,5 14,9 72,2 14,0 255 - 0,0 134 1.018,6
11:05 17,5 12,7 15,1 73,1 14,4 250 - 0,0 146 1.018,5
11:04 17,6 13,0 15,3 74,3 14,2 237 - 0,0 135 1.018,7
11:03 17,6 13,1 15,4 75,0 13,4 254 - 0,0 120 1.018,6
11:02 17,5 13,0 15,3 74,5 13,2 272 - 0,0 113 1.018,6
11:01 17,5 12,9 15,2 74,0 13,1 273 - 0,0 95 1.018,6
11:00 17,5 12,7 15,1 73,2 13,9 282 - 0,0 86 1.018,4
 
10:59 17,4 12,6 15,1 73,1 15,2 259 - 0,0 80 1.018,3
10:58 17,5 12,8 15,1 73,7 15,9 268 - 0,0 86 1.018,4
10:57 17,4 12,7 15,1 73,5 15,6 267 - 0,0 100 1.018,3
10:56 17,5 13,2 15,5 75,8 15,2 255 - 0,0 104 1.018,3
10:55 17,6 13,8 15,9 78,5 14,2 244 - 0,0 98 1.018,4
10:54 17,6 13,8 15,9 78,2 13,5 271 - 0,0 88 1.018,3
10:53 17,6 13,9 16,0 79,0 14,0 271 - 0,0 81 1.018,2
10:52 17,6 13,9 15,9 78,7 14,5 278 - 0,0 96 1.018,1
10:51 17,5 13,7 15,8 78,0 14,6 265 - 0,0 121 1.018,0
10:50 17,6 13,7 15,8 78,0 14,6 249 17,9 0,0 188 1.018,1
10:49 17,5 13,8 15,9 78,8 14,1 259 - 0,0 243 1.018,1
10:48 17,5 13,6 15,8 78,1 14,4 262 - 0,0 219 1.017,9
10:47 17,5 13,5 15,6 77,2 15,4 259 - 0,0 181 1.017,9
10:46 17,5 13,6 15,8 78,0 15,7 251 - 0,0 156 1.017,9
10:45 17,5 13,6 15,7 78,0 15,3 256 - 0,0 153 1.017,8
10:44 17,5 13,7 15,8 78,0 14,9 245 - 0,0 182 1.017,8
10:43 17,5 13,6 15,7 78,0 14,4 251 - 0,0 185 1.018,0
10:42 17,4 13,6 15,7 78,0 14,3 275 - 0,0 186 1.018,0
10:41 17,4 13,6 15,7 78,0 14,5 271 - 0,0 153 1.017,9
10:40 17,4 13,6 15,7 78,0 14,7 263 - 0,0 118 1.017,8
10:39 17,4 13,6 15,7 78,0 15,0 270 - 0,0 113 1.017,8
10:38 17,4 13,7 15,8 78,7 15,4 250 - 0,0 131 1.017,8
10:37 17,5 14,0 16,0 79,8 14,9 257 - 0,0 160 1.017,9
10:36 17,4 13,8 15,9 79,1 14,1 269 - 0,0 153 1.018,0
10:35 17,4 13,8 15,9 79,0 13,6 267 - 0,0 139 1.018,0
10:34 17,4 13,8 15,9 79,0 13,2 255 - 0,0 135 1.017,9
10:33 17,4 13,8 15,9 79,0 13,6 223 - 0,0 132 1.017,8
10:32 17,5 13,8 15,9 79,0 13,9 261 - 0,0 124 1.017,8
10:31 17,4 13,8 15,9 79,0 13,8 252 - 0,0 155 1.017,9
10:30 17,4 13,9 16,0 79,8 12,9 283 - 0,0 149 1.018,0
10:29 17,4 13,6 15,7 78,3 13,0 249 - 0,0 111 1.017,8
10:28 17,4 13,7 15,8 78,6 13,7 262 - 0,0 113 1.017,6
10:27 17,4 13,6 15,7 78,0 14,2 273 - 0,0 128 1.017,6
10:26 17,4 13,6 15,7 78,0 13,6 257 - 0,0 120 1.017,6
10:25 17,4 13,6 15,7 78,0 13,7 230 - 0,0 111 1.017,5
10:24 17,4 13,6 15,7 78,0 13,8 269 17,4 0,0 112 1.017,5
10:23 17,4 13,6 15,7 78,0 15,0 282 - 0,0 129 1.017,5
10:22 17,4 13,7 15,8 78,4 14,6 276 - 0,0 127 1.017,5
10:21 17,4 13,8 15,9 79,0 13,6 256 - 0,0 124 1.017,6
10:20 17,4 13,9 16,0 79,7 13,3 237 - 0,0 108 1.017,7
10:19 17,4 13,7 15,8 78,3 13,4 254 - 0,0 94 1.017,5
10:18 17,4 13,8 15,9 79,0 14,2 269 - 0,0 115 1.017,5
10:17 17,4 13,7 15,8 78,7 14,2 279 - 0,0 106 1.017,6
10:16 17,4 13,6 15,7 78,0 13,5 263 - 0,0 101 1.017,6
10:15 17,4 13,6 15,7 78,0 13,6 261 - 0,0 83 1.017,5
10:14 17,4 13,6 15,7 78,0 14,0 257 - 0,0 71 1.017,3
10:13 17,4 13,5 15,6 78,0 14,7 271 - 0,0 80 1.017,3
10:12 17,4 13,5 15,6 78,0 15,1 265 - 0,0 85 1.017,3
10:11 17,4 13,7 15,8 78,6 14,6 250 - 0,0 71 1.017,4
10:10 17,4 13,9 15,9 79,6 13,4 256 - 0,0 63 1.017,4
10:09 17,4 13,8 15,8 79,0 13,2 285 - 0,0 68 1.017,4
10:08 17,4 13,6 15,7 78,3 14,5 296 - 0,0 79 1.017,3
10:07 17,3 13,5 15,6 78,0 14,7 277 - 0,0 81 1.017,2
10:06 17,4 13,6 15,7 78,0 15,5 249 - 0,0 74 1.017,1
10:05 17,4 13,7 15,8 78,4 15,6 276 - 0,0 73 1.017,1
10:04 17,4 13,8 15,9 79,0 15,5 247 - 0,0 92 1.017,2
10:03 17,4 13,8 15,9 79,0 15,2 265 - 0,0 119 1.017,1
10:02 17,4 13,8 15,9 79,0 14,8 262 - 0,0 121 1.017,1
10:01 17,4 14,0 16,0 79,9 14,3 269 - 0,0 123 1.017,2
10:00 17,4 14,0 16,0 80,0 13,8 256 - 0,0 162 1.017,2
 
09:59 17,4 14,0 16,0 80,0 13,3 271 - 0,0 154 1.017,2
09:58 17,4 13,9 15,9 79,5 13,2 251 - 0,0 136 1.017,2
09:57 17,4 13,8 15,8 79,0 13,4 256 - 0,0 143 1.017,1
09:56 17,4 13,9 16,0 79,8 13,1 261 - 0,0 116 1.017,1
09:55 17,4 14,0 16,0 79,9 12,8 257 - 0,0 91 1.017,1
09:54 17,4 13,7 15,8 78,8 13,0 271 - 0,0 120 1.016,9
09:53 17,4 13,8 15,8 79,1 13,7 280 - 0,0 135 1.016,9
09:52 17,4 13,9 15,9 79,5 13,6 268 - 0,0 99 1.017,1
09:51 17,4 13,7 15,8 79,0 13,2 263 - 0,0 103 1.017,1
09:50 17,4 13,7 15,8 79,0 13,2 251 - 0,0 96 1.017,1
09:49 17,4 13,8 15,8 79,1 13,5 234 - 0,0 84 1.017,1
09:48 17,4 13,9 15,9 79,8 13,5 273 - 0,0 86 1.017,1
09:47 17,4 13,6 15,7 78,6 13,5 257 - 0,0 99 1.017,1
09:46 17,4 13,6 15,7 78,6 13,3 251 - 0,0 88 1.017,0
09:45 17,4 13,8 15,8 79,0 13,5 263 - 0,0 67 1.016,9
09:44 17,4 13,6 15,7 78,2 13,9 251 - 0,0 69 1.016,8
09:43 17,4 13,6 15,7 78,2 14,1 270 - 0,0 74 1.016,8
09:42 17,4 13,8 15,8 79,0 14,0 278 - 0,0 84 1.016,8
09:41 17,4 13,8 15,8 79,0 13,4 265 - 0,0 92 1.016,8
09:40 17,4 13,8 15,8 79,0 13,5 260 - 0,0 85 1.016,8
09:39 17,4 13,8 15,8 79,0 13,7 248 - 0,0 83 1.016,8
09:38 17,4 14,0 16,0 79,9 13,3 271 - 0,0 77 1.016,9
09:37 17,4 13,8 15,8 79,1 12,2 254 - 0,0 76 1.016,8
09:36 17,4 13,7 15,8 79,0 12,5 220 - 0,0 68 1.016,7
09:35 17,4 13,8 15,9 79,5 12,0 246 - 0,0 56 1.016,8
09:34 17,4 13,8 15,8 79,4 12,2 271 - 0,0 51 1.016,8
09:33 17,3 13,7 15,8 79,0 12,9 260 - 0,0 49 1.016,8
09:32 17,3 13,9 15,9 79,9 13,7 261 - 0,0 46 1.016,7
09:31 17,4 14,1 16,1 81,0 13,3 253 - 0,0 43 1.016,8
09:30 17,4 14,0 16,0 80,7 12,2 251 - 0,0 51 1.016,8
09:29 17,3 13,9 15,9 80,0 11,7 251 - 0,0 68 1.016,7
09:28 17,3 13,9 15,9 80,0 12,0 250 - 0,0 58 1.016,7
09:27 17,3 13,9 15,9 80,0 11,9 227 - 0,0 54 1.016,8
09:26 17,3 13,9 15,9 80,0 12,2 274 - 0,0 54 1.016,7
09:25 17,3 13,9 15,9 80,0 12,6 245 - 0,0 49 1.016,7
09:24 17,3 13,8 15,8 80,0 12,6 266 - 0,0 52 1.016,7
09:23 17,3 13,9 15,9 80,5 12,1 271 - 0,0 53 1.016,7
09:22 17,3 13,9 15,9 80,4 11,3 256 - 0,0 47 1.016,7
09:21 17,3 13,8 15,9 80,0 10,4 276 - 0,0 40 1.016,7
09:20 17,3 13,8 15,8 80,0 10,7 236 - 0,0 44 1.016,6
09:19 17,3 13,7 15,8 79,4 11,8 267 - 0,0 51 1.016,6
09:18 17,3 14,1 16,0 81,0 12,9 269 - 0,0 46 1.016,6
09:17 17,3 14,1 16,0 81,0 13,1 271 - 0,0 42 1.016,7
09:16 17,3 13,9 15,9 80,4 13,0 271 - 0,0 40 1.016,6
09:15 17,4 13,9 15,9 80,0 12,6 265 - 0,0 40 1.016,6
09:14 17,4 14,1 16,1 80,9 12,2 251 - 0,0 40 1.016,6
09:13 17,3 13,8 15,9 79,8 12,3 268 - 0,0 40 1.016,6
09:12 17,3 13,8 15,8 79,4 12,6 252 - 0,0 40 1.016,6
09:11 17,3 13,9 15,9 80,0 13,0 249 - 0,0 40 1.016,5
09:10 17,4 13,9 15,9 80,0 12,8 243 - 0,0 40 1.016,5
09:09 17,3 13,9 15,9 80,0 11,8 219 15,2 0,0 41 1.016,5
09:08 17,3 13,7 15,8 79,1 12,2 286 15,6 0,0 42 1.016,4
09:07 17,3 13,7 15,8 79,3 13,6 253 - 0,0 43 1.016,4
09:06 17,3 13,9 15,9 80,0 13,9 250 - 0,0 46 1.016,4
09:05 17,3 13,9 15,9 80,0 13,1 238 - 0,0 47 1.016,4
09:04 17,3 13,9 15,9 80,0 12,9 277 - 0,0 48 1.016,4
09:03 17,4 13,9 15,9 80,0 13,4 247 - 0,0 58 1.016,4
09:02 17,4 13,9 15,9 80,0 13,6 266 - 0,0 60 1.016,4
09:01 17,4 13,9 16,0 80,0 13,4 266 - 0,0 59 1.016,5
09:00 17,4 13,9 15,9 79,6 13,2 268 - 0,0 56 1.016,4
 
08:59 17,4 13,7 15,8 79,0 13,0 273 - 0,0 62 1.016,4
08:58 17,4 13,7 15,8 79,0 13,0 239 - 0,0 123 1.016,4
08:57 17,4 13,7 15,8 79,0 13,2 259 - 0,0 179 1.016,3
08:56 17,4 13,8 15,8 79,2 13,3 233 - 0,0 194 1.016,3
08:55 17,4 13,9 15,9 80,0 12,1 234 15,6 0,0 193 1.016,4
08:54 17,4 13,9 15,9 80,0 11,0 288 14,3 0,0 187 1.016,4
08:53 17,3 13,9 15,9 80,0 10,7 301 - 0,0 186 1.016,4
08:52 17,3 13,9 15,9 80,0 10,5 239 - 0,0 177 1.016,5
08:51 17,4 14,1 16,0 80,9 11,4 252 - 0,0 142 1.016,5
08:50 17,4 14,1 16,1 81,0 10,8 247 - 0,0 142 1.016,4
08:49 17,4 14,2 16,1 81,3 10,8 228 - 0,0 165 1.016,4
08:48 17,4 14,2 16,2 81,6 11,1 234 - 0,0 176 1.016,4
08:47 17,3 14,1 16,0 81,0 11,6 252 - 0,0 176 1.016,4
08:46 17,3 14,0 16,0 81,0 11,6 253 - 0,0 177 1.016,5
08:45 17,3 14,0 16,0 81,0 10,2 247 - 0,0 173 1.016,5
08:44 17,3 14,0 16,0 81,0 8,9 208 - 0,0 171 1.016,4
08:43 17,3 14,0 16,0 81,0 8,6 277 12,5 0,0 170 1.016,5
08:42 17,3 14,0 16,0 81,0 9,1 232 - 0,0 164 1.016,5
08:41 17,3 14,0 16,0 81,0 9,4 265 - 0,0 161 1.016,4
08:40 17,3 14,0 16,0 81,0 10,0 247 - 0,0 151 1.016,4
08:39 17,3 14,0 16,0 81,0 10,4 271 - 0,0 144 1.016,4
08:38 17,3 14,0 16,0 81,0 9,6 266 - 0,0 100 1.016,4
08:37 17,3 14,0 16,0 81,0 9,4 222 - 0,0 53 1.016,4
08:36 17,3 14,0 16,0 81,0 9,9 244 - 0,0 65 1.016,4
08:35 17,3 14,1 16,1 81,7 9,7 250 - 0,0 63 1.016,4
08:34 17,3 14,1 16,0 81,2 9,4 213 - 0,0 41 1.016,4
08:33 17,3 14,0 15,9 81,0 9,9 224 - 0,0 42 1.016,4
08:32 17,2 14,0 15,9 81,0 10,7 236 - 0,0 46 1.016,4
08:31 17,3 14,0 16,0 81,0 10,8 245 - 0,0 116 1.016,4
08:30 17,2 14,0 15,9 81,0 10,5 261 - 0,0 142 1.016,3
08:29 17,3 14,1 16,1 81,7 10,3 262 - 0,0 156 1.016,3
08:28 17,3 14,0 16,0 81,2 9,9 261 - 0,0 164 1.016,4
08:27 17,2 14,0 15,9 81,1 10,1 228 - 0,0 127 1.016,3
08:26 17,3 14,2 16,1 82,0 10,4 265 - 0,0 77 1.016,3
08:25 17,3 14,2 16,1 82,0 10,2 263 - 0,0 80 1.016,3
08:24 17,3 14,2 16,1 82,0 9,3 286 - 0,0 142 1.016,4
08:23 17,3 14,2 16,1 82,0 9,6 254 - 0,0 148 1.016,4
08:22 17,3 14,2 16,1 82,0 10,2 261 - 0,0 139 1.016,3
08:21 17,3 14,2 16,1 82,0 10,2 250 - 0,0 108 1.016,3
08:20 17,3 14,2 16,1 82,0 9,8 249 - 0,0 76 1.016,3
08:19 17,3 14,2 16,1 82,0 9,2 238 - 0,0 66 1.016,3
08:18 17,2 14,2 16,1 82,0 8,5 261 - 0,0 59 1.016,3
08:17 17,2 14,2 16,1 82,0 8,4 211 - 0,0 110 1.016,3
08:16 17,2 14,1 16,0 81,8 9,1 253 - 0,0 120 1.016,3
08:15 17,2 13,9 15,9 81,2 10,1 258 - 0,0 82 1.016,2
08:14 17,2 14,1 16,0 82,0 10,2 247 - 0,0 50 1.016,2
08:13 17,2 14,1 16,0 82,0 9,6 243 - 0,0 38 1.016,3
08:12 17,2 14,1 16,0 82,0 8,9 238 - 0,0 26 1.016,3
08:11 17,2 14,1 16,0 82,0 8,5 218 - 0,0 25 1.016,3
08:10 17,2 14,1 16,0 82,0 8,6 238 - 0,0 23 1.016,3
08:09 17,2 14,1 16,0 82,0 8,6 217 - 0,0 23 1.016,3
08:08 17,2 14,1 16,1 82,0 8,5 235 - 0,0 23 1.016,3
08:07 17,2 14,1 16,0 82,0 8,4 212 - 0,0 25 1.016,3
08:06 17,2 14,0 15,9 81,4 8,7 217 - 0,0 33 1.016,3
08:05 17,2 13,9 15,9 81,0 8,5 219 - 0,0 41 1.016,3
08:04 17,2 14,1 16,0 81,9 7,8 186 - 0,0 47 1.016,3
08:03 17,2 14,1 16,1 82,0 7,6 251 - 0,0 65 1.016,3
08:02 17,2 14,1 16,0 81,7 8,5 235 - 0,0 72 1.016,3
08:01 17,2 14,1 16,0 81,5 8,5 234 - 0,0 50 1.016,3
08:00 17,2 14,0 16,0 81,4 7,3 211 - 0,0 67 1.016,3
 
07:59 17,2 14,0 15,9 81,0 5,7 290 - 0,0 53 1.016,3
07:58 17,3 14,0 15,9 81,0 5,9 181 10,7 0,0 38 1.016,3
07:57 17,3 14,0 16,0 81,0 7,4 256 - 0,0 33 1.016,3
07:56 17,2 14,0 15,9 81,0 8,7 251 - 0,0 37 1.016,3
07:55 17,2 14,0 15,9 81,0 8,5 252 - 0,0 43 1.016,2
07:54 17,2 14,0 15,9 81,0 8,6 211 - 0,0 43 1.016,2
07:53 17,3 14,0 16,0 81,0 8,7 257 - 0,0 34 1.016,3
07:52 17,3 14,0 16,0 81,0 9,0 229 - 0,0 33 1.016,2
07:51 17,3 14,0 16,0 81,0 9,3 253 - 0,0 33 1.016,1
07:50 17,3 14,0 16,0 81,0 9,5 267 - 0,0 41 1.016,1
07:49 17,3 14,0 16,0 81,0 9,4 236 - 0,0 40 1.016,2
07:48 17,2 14,0 15,9 81,0 9,3 240 - 0,0 46 1.016,2
07:47 17,2 14,0 15,9 81,0 9,4 247 - 0,0 46 1.016,2
07:46 17,2 13,9 15,9 80,9 9,6 243 - 0,0 49 1.016,1
07:45 17,2 13,8 15,8 80,3 9,8 255 - 0,0 46 1.016,1
07:44 17,3 14,0 15,9 81,0 9,7 238 - 0,0 36 1.016,1
07:43 17,3 14,1 16,0 81,6 9,5 236 - 0,0 33 1.016,1
07:42 17,3 14,1 16,0 81,3 9,0 234 - 0,0 31 1.016,1
07:41 17,3 14,0 16,0 81,0 9,0 225 - 0,0 27 1.016,1
07:40 17,2 14,0 15,9 81,0 9,2 230 - 0,0 26 1.016,1
07:39 17,2 14,0 15,9 81,0 9,0 248 - 0,0 24 1.016,1
07:38 17,2 14,0 15,9 81,0 8,7 223 - 0,0 23 1.016,1
07:37 17,2 14,0 15,9 81,0 8,6 247 - 0,0 23 1.016,0
07:36 17,2 14,0 15,9 81,0 8,5 223 - 0,0 26 1.016,0
07:35 17,2 14,0 15,9 81,0 7,7 222 - 0,0 26 1.016,1
07:34 17,3 14,0 16,0 81,0 7,8 272 11,2 0,0 25 1.016,1
07:33 17,2 14,0 15,9 81,0 7,2 234 - 0,0 22 1.016,1
07:32 17,2 14,0 15,9 81,0 8,0 181 - 0,0 21 1.016,1
07:31 17,3 14,0 16,0 81,0 8,3 224 - 0,0 23 1.016,1
07:30 17,3 14,0 16,0 81,0 8,8 224 - 0,0 23 1.016,0
07:29 17,3 14,0 16,0 81,0 8,8 215 - 0,0 23 1.016,0
07:28 17,3 13,8 15,8 80,0 8,8 238 - 0,0 22 1.016,0
07:27 17,2 13,8 15,8 80,0 9,1 240 - 0,0 21 1.016,0
07:26 17,3 13,9 15,9 80,5 9,1 217 - 0,0 19 1.016,0
07:25 17,3 13,9 15,9 80,4 9,0 231 - 0,0 19 1.015,9
07:24 17,3 13,8 15,8 80,0 8,5 237 - 0,0 19 1.015,9
07:23 17,3 13,8 15,8 80,0 8,3 197 - 0,0 19 1.015,9
07:22 17,3 13,8 15,8 80,0 8,3 248 - 0,0 19 1.015,9
07:21 17,3 13,9 15,9 80,4 8,8 226 - 0,0 19 1.015,8
07:20 17,3 14,0 16,0 81,0 8,8 249 - 0,0 21 1.015,9
07:19 17,3 14,0 16,0 81,0 8,7 246 - 0,0 21 1.015,9
07:18 17,3 13,8 15,8 80,2 8,5 224 - 0,0 19 1.015,9
07:17 17,3 14,0 16,0 81,0 8,0 209 - 0,0 17 1.015,9
07:16 17,3 14,1 16,0 81,0 6,6 163 10,3 0,0 14 1.015,9
07:15 17,3 14,0 16,0 81,0 6,4 256 - 0,0 12 1.015,9
07:14 17,3 14,0 16,0 81,0 7,9 224 - 0,0 11 1.015,9
07:13 17,3 13,9 15,9 80,4 8,1 247 - 0,0 11 1.015,8
07:12 17,3 13,8 15,8 80,0 8,5 270 - 0,0 9 1.015,8
07:11 17,3 13,9 15,9 80,1 8,6 240 - 0,0 9 1.015,9
07:10 17,3 14,0 16,0 80,8 8,4 258 - 0,0 8 1.015,8
07:09 17,3 13,8 15,8 80,0 8,3 235 - 0,0 7 1.015,8
07:08 17,3 13,8 15,8 80,0 8,3 259 - 0,0 7 1.015,8
07:07 17,3 13,8 15,8 80,0 8,4 224 - 0,0 7 1.015,8
07:06 17,3 13,8 15,8 80,0 8,8 230 - 0,0 7 1.015,8
07:05 17,3 13,8 15,8 80,0 9,0 234 - 0,0 7 1.015,7
07:04 17,2 13,8 15,8 80,0 8,9 217 - 0,0 6 1.015,7
07:03 17,2 13,8 15,8 80,0 8,8 261 12,1 0,0 5 1.015,8
07:02 17,2 13,8 15,8 80,0 9,0 251 - 0,0 5 1.015,8
07:01 17,2 13,8 15,8 80,0 8,9 252 - 0,0 5 1.015,7
07:00 17,2 13,8 15,8 80,0 9,0 232 - 0,0 5 1.015,7
 
06:59 17,3 13,8 15,8 80,0 8,8 251 - 0,0 5 1.015,8
06:58 17,2 13,8 15,8 80,3 8,6 213 - 0,0 2 1.015,7
06:57 17,3 14,0 15,9 81,0 8,6 240 - 0,0 0 1.015,8
06:56 17,2 14,0 15,9 81,0 7,8 199 - 0,0 0 1.015,7
06:55 17,3 14,0 16,0 81,0 7,6 269 - 0,0 0 1.015,8
06:54 17,3 14,0 16,0 81,0 8,3 251 - 0,0 0 1.015,7
06:53 17,3 14,1 16,0 81,0 8,2 249 - 0,0 0 1.015,7
06:52 17,3 14,1 16,0 81,0 7,8 268 - 0,0 0 1.015,7
06:51 17,3 14,1 16,0 81,0 7,5 219 10,7 0,0 0 1.015,6
06:50 17,3 14,0 16,0 81,0 7,7 280 - 0,0 0 1.015,7
06:49 17,3 14,0 16,0 81,0 8,1 268 - 0,0 0 1.015,6
06:48 17,3 14,1 16,0 81,0 8,5 236 - 0,0 0 1.015,6
06:47 17,3 14,1 16,0 81,0 8,7 231 - 0,0 0 1.015,6
06:46 17,3 14,1 16,0 81,0 8,6 205 - 0,0 0 1.015,6
06:45 17,3 14,1 16,0 81,0 8,2 197 - 0,0 0 1.015,7
06:44 17,3 13,9 15,9 80,2 8,5 228 - 0,0 0 1.015,7
06:43 17,3 14,0 16,0 80,8 8,9 222 12,1 0,0 0 1.015,7
06:42 17,3 14,0 16,0 81,0 8,6 194 - 0,0 0 1.015,7
06:41 17,3 14,0 16,0 81,0 8,3 248 - 0,0 0 1.015,7
06:40 17,3 14,0 16,0 81,0 9,2 241 - 0,0 0 1.015,7
06:39 17,3 14,0 16,0 81,0 9,1 257 - 0,0 0 1.015,7
06:38 17,3 14,0 16,0 81,0 9,1 269 - 0,0 0 1.015,7
06:37 17,3 14,0 16,0 81,0 8,7 251 - 0,0 0 1.015,7
06:36 17,3 14,1 16,1 81,3 8,5 232 - 0,0 0 1.015,7
06:35 17,3 14,3 16,2 82,0 8,3 207 - 0,0 0 1.015,7
06:34 17,4 14,3 16,2 82,0 8,0 248 - 0,0 0 1.015,7
06:33 17,3 14,2 16,1 81,5 8,1 249 - 0,0 0 1.015,7
06:32 17,3 14,1 16,0 81,0 7,9 238 - 0,0 0 1.015,7
06:31 17,3 14,0 16,0 81,0 7,7 253 - 0,0 0 1.015,7
06:30 17,3 14,1 16,0 81,0 8,0 203 - 0,0 0 1.015,7
06:29 17,3 14,0 16,0 80,8 7,9 247 - 0,0 0 1.015,6
06:28 17,3 13,9 15,9 80,0 8,0 186 - 0,0 0 1.015,6
06:27 17,3 13,9 15,9 80,0 8,5 222 - 0,0 0 1.015,6
06:26 17,3 13,9 15,9 80,0 8,1 174 11,2 0,0 0 1.015,6
06:25 17,3 13,7 15,8 79,2 8,3 238 - 0,0 0 1.015,5
06:24 17,4 13,7 15,8 79,1 9,4 224 - 0,0 0 1.015,5
06:23 17,4 13,9 15,9 79,8 9,6 235 - 0,0 0 1.015,6
06:22 17,4 13,7 15,8 79,0 9,2 215 - 0,0 0 1.015,7
06:21 17,4 13,7 15,8 79,0 9,1 195 - 0,0 0 1.015,6
06:20 17,4 13,9 15,9 79,7 9,4 247 12,5 0,0 0 1.015,6
06:19 17,4 13,9 15,9 80,0 10,1 228 - 0,0 0 1.015,6
06:18 17,4 13,9 15,9 80,0 10,3 257 - 0,0 0 1.015,6
06:17 17,3 13,9 15,9 80,0 10,7 265 - 0,0 0 1.015,6
06:16 17,3 13,9 15,9 80,0 8,4 263 - 0,0 0 1.015,6
06:15 17,3 13,9 15,9 80,0 8,2 182 11,6 0,0 0 1.015,5
06:14 17,3 13,9 15,9 80,0 9,1 223 - 0,0 0 1.015,5
06:13 17,3 14,0 16,0 80,9 9,5 234 - 0,0 0 1.015,5
06:12 17,3 13,9 15,9 80,1 8,6 237 - 0,0 0 1.015,5
06:11 17,3 14,0 15,9 80,3 8,3 288 - 0,0 0 1.015,5
06:10 17,4 14,1 16,1 81,0 8,3 254 - 0,0 0 1.015,5
06:09 17,4 14,0 16,0 80,4 8,1 272 - 0,0 0 1.015,6
06:08 17,4 13,9 15,9 80,0 8,2 256 - 0,0 0 1.015,6
06:07 17,4 13,9 15,9 80,0 7,6 276 11,6 0,0 0 1.015,5
06:06 17,4 13,9 16,0 80,0 7,6 213 - 0,0 0 1.015,5
06:05 17,4 14,0 16,0 80,0 8,2 239 - 0,0 0 1.015,5
06:04 17,4 14,0 16,0 80,0 8,4 244 - 0,0 0 1.015,5
06:03 17,4 13,9 16,0 79,8 8,3 247 - 0,0 0 1.015,5
06:02 17,4 13,8 15,9 79,2 8,4 250 - 0,0 0 1.015,4
06:01 17,4 13,8 15,8 79,1 8,2 236 - 0,0 0 1.015,4
06:00 17,4 13,9 15,9 79,8 7,9 193 12,1 0,0 0 1.015,4
 
05:59 17,4 13,7 15,8 79,0 7,7 257 - 0,0 0 1.015,4
05:58 17,4 13,7 15,8 79,0 8,2 237 - 0,0 0 1.015,5
05:57 17,4 13,7 15,8 79,0 8,4 230 - 0,0 0 1.015,5
05:56 17,4 13,7 15,8 79,0 8,6 238 - 0,0 0 1.015,5
05:55 17,4 13,8 15,8 79,0 8,2 226 - 0,0 0 1.015,5
05:54 17,4 13,8 15,9 79,0 7,7 189 - 0,0 0 1.015,5
05:53 17,4 13,8 15,9 79,0 7,5 245 - 0,0 0 1.015,5
05:52 17,4 13,8 15,9 79,0 7,9 234 - 0,0 0 1.015,4
05:51 17,4 13,8 15,9 79,0 7,8 262 - 0,0 0 1.015,4
05:50 17,4 13,8 15,9 79,0 8,2 272 - 0,0 0 1.015,4
05:49 17,5 13,8 15,9 78,9 7,7 251 - 0,0 0 1.015,4
05:48 17,5 13,6 15,7 78,0 8,4 195 - 0,0 0 1.015,4
05:47 17,5 13,6 15,7 78,0 9,1 251 - 0,0 0 1.015,4
05:46 17,4 13,6 15,7 78,0 9,8 204 - 0,0 0 1.015,3
05:45 17,5 13,8 15,8 78,7 9,9 248 - 0,0 0 1.015,3
05:44 17,4 13,7 15,8 78,2 9,6 246 - 0,0 0 1.015,3
05:43 17,4 13,7 15,8 78,3 9,0 229 - 0,0 0 1.015,3
05:42 17,4 13,8 15,8 78,8 9,0 261 - 0,0 0 1.015,3
05:41 17,4 13,7 15,8 78,4 8,5 253 - 0,0 0 1.015,3
05:40 17,4 13,7 15,8 78,5 8,3 208 11,6 0,0 0 1.015,3
05:39 17,4 13,6 15,7 78,0 8,5 258 - 0,0 0 1.015,4
05:38 17,5 13,8 15,9 78,9 8,8 262 - 0,0 0 1.015,4
05:37 17,4 13,6 15,7 77,9 8,9 221 - 0,0 0 1.015,4
05:36 17,4 13,6 15,7 77,9 9,3 247 - 0,0 0 1.015,4
05:35 17,4 13,7 15,8 78,6 9,4 253 - 0,0 0 1.015,4
05:34 17,4 13,6 15,7 78,0 8,1 286 11,6 0,0 0 1.015,4
05:33 17,5 13,6 15,7 78,0 8,1 208 - 0,0 0 1.015,4
05:32 17,5 13,6 15,7 78,0 9,3 238 - 0,0 0 1.015,4
05:31 17,5 13,6 15,7 78,0 9,5 242 - 0,0 0 1.015,4
05:30 17,5 13,7 15,8 78,0 6,2 234 11,2 0,0 0 1.015,4
05:29 17,5 13,5 15,7 77,6 3,9 350 10,3 0,0 0 1.015,4
05:28 17,4 13,5 15,7 77,6 5,4 202 11,6 0,0 0 1.015,4
05:27 17,5 13,5 15,7 77,3 9,1 266 - 0,0 0 1.015,4
05:26 17,5 13,8 15,9 78,8 9,4 208 13,0 0,0 0 1.015,4
05:25 17,5 13,7 15,8 78,0 9,5 226 - 0,0 0 1.015,3
05:24 17,5 13,7 15,8 78,0 8,9 246 - 0,0 0 1.015,3
05:23 17,5 13,6 15,8 78,0 9,3 265 - 0,0 0 1.015,3
05:22 17,5 13,8 15,8 78,6 9,7 254 - 0,0 0 1.015,3
05:21 17,5 13,7 15,8 78,3 9,3 257 - 0,0 0 1.015,3
05:20 17,5 13,6 15,7 78,0 8,4 288 - 0,0 0 1.015,4
05:19 17,4 13,6 15,7 78,0 8,4 227 11,6 0,0 0 1.015,3
05:18 17,4 13,6 15,7 78,0 9,4 240 - 0,0 0 1.015,3
05:17 17,5 13,6 15,8 78,0 9,5 230 - 0,0 0 1.015,3
05:16 17,5 13,7 15,8 78,0 9,2 217 - 0,0 0 1.015,3
05:15 17,5 13,7 15,8 78,0 9,1 257 - 0,0 0 1.015,3
05:14 17,5 13,7 15,8 78,0 9,9 270 - 0,0 0 1.015,3
05:13 17,5 13,7 15,8 78,0 10,3 263 - 0,0 0 1.015,2
05:12 17,5 13,6 15,7 77,7 10,4 277 - 0,0 0 1.015,2
05:11 17,5 13,5 15,7 77,5 9,5 263 - 0,0 0 1.015,3
05:10 17,5 13,7 15,8 78,0 9,1 215 - 0,0 0 1.015,3
05:09 17,5 13,9 15,9 78,8 9,0 277 - 0,0 0 1.015,3
05:08 17,6 13,7 15,8 78,1 9,6 252 - 0,0 0 1.015,3
05:07 17,6 13,8 15,9 78,3 9,7 267 - 0,0 0 1.015,3
05:06 17,6 13,8 15,9 78,5 9,8 258 - 0,0 0 1.015,3
05:05 17,6 13,7 15,8 78,0 9,6 247 - 0,0 0 1.015,3
05:04 17,5 13,7 15,8 78,0 9,7 234 - 0,0 0 1.015,3
05:03 17,5 13,5 15,7 77,2 9,8 255 - 0,0 0 1.015,2
05:02 17,5 13,6 15,8 78,0 10,1 263 - 0,0 0 1.015,2
05:01 17,5 13,6 15,7 77,8 9,9 281 - 0,0 0 1.015,2
05:00 17,5 13,4 15,6 77,0 10,0 238 - 0,0 0 1.015,2
 
04:59 17,5 13,5 15,7 77,5 10,2 269 - 0,0 0 1.015,2
04:58 17,5 13,5 15,7 77,3 9,8 277 - 0,0 0 1.015,2
04:57 17,5 13,7 15,8 78,0 9,1 249 - 0,0 0 1.015,2
04:56 17,5 13,6 15,8 77,7 9,2 272 - 0,0 0 1.015,2
04:55 17,5 13,4 15,6 76,6 10,0 264 - 0,0 0 1.015,1
04:54 17,5 13,6 15,7 77,6 9,4 265 13,0 0,0 0 1.015,2
04:53 17,5 13,4 15,6 76,5 9,3 215 - 0,0 0 1.015,1
04:52 17,5 13,4 15,6 76,7 9,5 242 - 0,0 0 1.015,1
04:51 17,5 13,5 15,6 77,0 9,6 240 - 0,0 0 1.015,2
04:50 17,5 13,3 15,5 76,2 8,7 245 - 0,0 0 1.015,2
04:49 17,5 13,5 15,6 77,0 6,7 289 10,7 0,0 0 1.015,1
04:48 17,5 13,4 15,6 76,6 6,2 180 9,8 0,0 0 1.015,1
04:47 17,4 13,2 15,5 76,0 7,5 253 - 0,0 0 1.015,1
04:46 17,5 13,2 15,5 76,0 9,2 261 - 0,0 0 1.015,2
04:45 17,5 13,3 15,5 76,0 6,8 257 10,3 0,0 0 1.015,2
04:44 17,5 13,3 15,5 76,2 6,4 163 11,2 0,0 0 1.015,2
04:43 17,5 13,5 15,6 76,7 7,2 250 11,2 0,0 0 1.015,1
04:42 17,5 13,4 15,6 76,5 8,5 249 11,6 0,0 0 1.015,1
04:41 17,5 13,4 15,6 76,4 8,1 202 - 0,0 0 1.015,1
04:40 17,5 13,3 15,5 76,0 8,5 269 - 0,0 0 1.015,1
04:39 17,5 13,5 15,7 76,9 9,8 251 - 0,0 0 1.015,1
04:38 17,6 13,5 15,7 77,0 7,5 274 11,2 0,0 0 1.015,1
04:37 17,5 13,5 15,7 77,0 6,1 176 10,7 0,0 0 1.015,1
04:36 17,6 13,4 15,6 76,5 6,9 282 10,7 0,0 0 1.015,1
04:35 17,6 13,5 15,7 76,7 9,3 252 - 0,0 0 1.015,1
04:34 17,6 13,4 15,6 76,2 9,8 267 - 0,0 0 1.015,1
04:33 17,5 13,3 15,6 76,1 10,3 272 - 0,0 0 1.015,0
04:32 17,6 13,6 15,7 77,2 10,3 276 - 0,0 0 1.015,0
04:31 17,6 13,7 15,8 77,7 9,8 258 - 0,0 0 1.015,1
04:30 17,6 13,5 15,7 77,0 9,7 257 - 0,0 0 1.015,0
04:29 17,6 13,6 15,7 77,0 9,3 255 - 0,0 0 1.015,1
04:28 17,6 13,6 15,8 77,0 8,9 271 - 0,0 0 1.015,1
04:27 17,6 13,8 15,9 78,0 9,0 236 - 0,0 0 1.015,0
04:26 17,6 13,8 15,9 78,0 9,7 242 - 0,0 0 1.015,1
04:25 17,6 13,7 15,8 77,6 10,2 262 - 0,0 0 1.015,1
04:24 17,6 13,6 15,7 77,0 10,3 255 - 0,0 0 1.015,1
04:23 17,6 13,6 15,8 77,0 9,9 247 - 0,0 0 1.015,0
04:22 17,6 13,6 15,7 77,0 9,2 240 - 0,0 0 1.015,1
04:21 17,6 13,6 15,7 77,0 9,2 227 - 0,0 0 1.015,0
04:20 17,6 13,6 15,7 77,0 9,1 225 - 0,0 0 1.014,9
04:19 17,6 13,6 15,7 77,0 8,8 263 - 0,0 0 1.015,0
04:18 17,6 13,6 15,7 77,0 8,5 206 - 0,0 0 1.014,9
04:17 17,6 13,6 15,7 77,0 9,2 197 - 0,0 0 1.014,9
04:16 17,6 13,6 15,8 77,0 8,3 173 - 0,0 0 1.014,9
04:15 17,6 13,6 15,8 77,0 7,9 245 11,2 0,0 0 1.014,9
04:14 17,6 13,6 15,8 77,0 9,9 258 - 0,0 0 1.014,9
04:13 17,6 13,6 15,8 77,0 9,9 242 - 0,0 0 1.014,9
04:12 17,6 13,6 15,8 77,0 9,9 254 - 0,0 0 1.014,8
04:11 17,6 13,6 15,8 77,0 10,0 254 - 0,0 0 1.014,8
04:10 17,6 13,6 15,8 77,0 10,3 268 - 0,0 0 1.014,9
04:09 17,6 13,4 15,6 76,2 9,1 257 - 0,0 0 1.014,9
04:08 17,6 13,5 15,7 76,7 9,2 196 - 0,0 0 1.014,8
04:07 17,6 13,5 15,7 76,5 9,7 249 - 0,0 0 1.014,8
04:06 17,7 13,6 15,8 77,0 10,2 230 - 0,0 0 1.014,8
04:05 17,7 13,6 15,8 77,0 9,8 249 - 0,0 0 1.014,8
04:04 17,7 13,6 15,8 77,0 9,7 278 - 0,0 0 1.014,9
04:03 17,7 13,6 15,8 76,8 9,7 249 - 0,0 0 1.014,9
04:02 17,7 13,4 15,7 76,0 10,5 238 - 0,0 0 1.014,8
04:01 17,7 13,4 15,7 76,0 11,1 261 - 0,0 0 1.014,9
04:00 17,7 13,4 15,7 76,0 11,2 247 - 0,0 0 1.014,9
 
03:59 17,7 13,6 15,8 76,9 10,9 260 - 0,0 0 1.014,9
03:58 17,7 13,7 15,8 77,0 11,1 284 - 0,0 0 1.014,8
03:57 17,7 13,7 15,9 77,2 11,4 262 - 0,0 0 1.014,8
03:56 17,8 13,9 16,1 78,0 11,2 257 - 0,0 0 1.014,9
03:55 17,8 13,9 16,0 78,0 10,5 268 - 0,0 0 1.014,9
03:54 17,7 13,7 15,9 77,2 8,9 257 - 0,0 0 1.014,8
03:53 17,7 13,5 15,7 76,2 9,6 192 - 0,0 0 1.014,7
03:52 17,7 13,6 15,8 76,9 10,1 254 13,4 0,0 0 1.014,7
03:51 17,7 13,4 15,7 76,0 11,7 271 - 0,0 0 1.014,7
03:50 17,7 13,5 15,7 76,4 11,5 257 - 0,0 0 1.014,7
03:49 17,7 13,6 15,8 77,0 11,2 269 - 0,0 0 1.014,7
03:48 17,7 13,6 15,8 77,0 10,9 272 - 0,0 0 1.014,8
03:47 17,7 13,6 15,8 77,0 8,3 264 12,1 0,0 0 1.014,8
03:46 17,7 13,6 15,8 77,0 6,7 186 10,3 0,0 0 1.014,8
03:45 17,7 13,6 15,8 76,8 7,2 289 10,3 0,0 0 1.014,7
03:44 17,7 13,5 15,7 76,4 10,1 259 - 0,0 0 1.014,7
03:43 17,7 13,7 15,8 77,0 10,8 261 - 0,0 0 1.014,7
03:42 17,7 13,7 15,8 77,0 10,8 238 - 0,0 0 1.014,7
03:41 17,7 13,5 15,7 76,2 10,8 244 - 0,0 0 1.014,7
03:40 17,7 13,7 15,8 77,0 10,8 259 - 0,0 0 1.014,7
03:39 17,7 13,7 15,9 77,0 10,6 257 - 0,0 0 1.014,6
03:38 17,7 13,8 15,9 77,4 10,0 242 - 0,0 0 1.014,7
03:37 17,8 13,8 16,0 77,5 9,6 261 - 0,0 0 1.014,7
03:36 17,8 13,7 15,9 77,0 9,6 247 - 0,0 0 1.014,7
03:35 17,7 13,6 15,8 76,3 9,9 282 - 0,0 0 1.014,7
03:34 17,8 13,7 15,9 77,0 9,8 253 - 0,0 0 1.014,7
03:33 17,8 13,6 15,8 76,3 9,8 232 - 0,0 0 1.014,7
03:32 17,8 13,5 15,8 76,0 10,3 270 - 0,0 0 1.014,7
03:31 17,8 13,7 15,9 76,6 10,9 263 - 0,0 0 1.014,6
03:30 17,8 13,6 15,8 76,1 10,7 252 - 0,0 0 1.014,6
03:29 17,8 13,5 15,8 76,0 10,5 238 - 0,0 0 1.014,6
03:28 17,8 13,5 15,8 75,9 10,6 242 - 0,0 0 1.014,7
03:27 17,8 13,4 15,7 75,3 10,5 238 - 0,0 0 1.014,6
03:26 17,8 13,5 15,8 76,0 10,5 253 - 0,0 0 1.014,6
03:25 17,8 13,4 15,7 75,4 10,7 257 - 0,0 0 1.014,6
03:24 17,7 13,3 15,6 75,0 10,8 246 - 0,0 0 1.014,6
03:23 17,8 13,5 15,8 75,9 10,8 279 - 0,0 0 1.014,6
03:22 17,8 13,5 15,8 76,0 10,5 252 - 0,0 0 1.014,7
03:21 17,8 13,5 15,8 76,0 9,8 255 - 0,0 0 1.014,7
03:20 17,8 13,5 15,8 76,0 9,5 276 - 0,0 0 1.014,7
03:19 17,8 13,5 15,8 76,0 9,7 276 - 0,0 0 1.014,6
03:18 17,8 13,5 15,8 76,0 10,4 249 - 0,0 0 1.014,5
03:17 17,8 13,8 15,9 76,9 10,6 258 - 0,0 0 1.014,6
03:16 17,8 13,6 15,8 76,0 10,7 274 - 0,0 0 1.014,6
03:15 17,8 13,6 15,8 76,0 10,8 262 - 0,0 0 1.014,6
03:14 17,8 13,5 15,8 76,0 10,7 255 - 0,0 0 1.014,6
03:13 17,8 13,6 15,8 76,0 10,3 284 - 0,0 0 1.014,6
03:12 17,8 13,6 15,8 76,0 8,9 257 - 0,0 0 1.014,6
03:11 17,9 13,6 15,9 76,0 9,1 213 - 0,0 0 1.014,6
03:10 17,8 13,6 15,8 75,8 9,4 257 - 0,0 0 1.014,6
03:09 17,8 13,5 15,7 75,4 10,4 261 - 0,0 0 1.014,6
03:08 17,8 13,6 15,8 76,0 10,8 251 - 0,0 0 1.014,6
03:07 17,8 13,6 15,8 76,0 10,9 251 - 0,0 0 1.014,6
03:06 17,8 13,6 15,8 76,0 10,8 238 - 0,0 0 1.014,6
03:05 17,8 13,5 15,7 75,3 11,0 236 - 0,0 0 1.014,6
03:04 17,9 13,8 16,0 76,8 10,8 240 - 0,0 0 1.014,5
03:03 17,9 13,5 15,8 75,6 10,6 261 - 0,0 0 1.014,5
03:02 17,8 13,4 15,7 75,0 10,8 267 - 0,0 0 1.014,5
03:01 17,8 13,4 15,7 75,0 11,1 276 - 0,0 0 1.014,5
03:00 17,9 13,6 15,8 76,0 11,6 243 - 0,0 0 1.014,5
 
02:59 17,9 13,8 16,0 76,9 11,3 265 - 0,0 0 1.014,5
02:58 17,9 13,7 15,9 76,0 11,0 267 - 0,0 0 1.014,5
02:57 17,9 13,7 15,9 76,0 10,7 261 - 0,0 0 1.014,5
02:56 17,9 13,7 15,9 76,0 10,4 258 - 0,0 0 1.014,5
02:55 17,9 13,7 15,9 76,0 10,5 226 - 0,0 0 1.014,5
02:54 17,9 13,5 15,7 75,1 10,8 248 - 0,0 0 1.014,5
02:53 17,9 13,6 15,9 76,0 10,9 265 - 0,0 0 1.014,5
02:52 17,8 13,6 15,8 75,7 10,6 274 - 0,0 0 1.014,5
02:51 17,8 13,5 15,8 75,5 10,0 267 - 0,0 0 1.014,6
02:50 17,9 13,6 15,9 76,1 10,0 235 - 0,0 0 1.014,5
02:49 17,9 13,9 16,1 77,5 9,6 255 - 0,0 0 1.014,6
02:48 17,9 13,9 16,1 77,2 8,7 243 - 0,0 0 1.014,6
02:47 17,9 13,7 15,9 76,2 8,8 203 - 0,0 0 1.014,5
02:46 17,9 13,9 16,0 77,0 9,0 258 - 0,0 0 1.014,5
02:45 17,9 14,0 16,1 77,5 9,5 253 - 0,0 0 1.014,6
02:44 17,9 14,1 16,2 78,0 9,0 232 - 0,0 0 1.014,6
02:43 17,9 13,8 16,0 76,5 8,2 271 - 0,0 0 1.014,6
02:42 17,9 13,6 15,9 76,0 8,1 201 11,6 0,0 0 1.014,6
02:41 17,9 13,7 15,9 76,0 9,1 274 - 0,0 0 1.014,6
02:40 17,9 13,8 16,0 76,7 10,0 254 - 0,0 0 1.014,5
02:39 17,9 13,9 16,1 77,1 10,0 258 - 0,0 0 1.014,5
02:38 17,9 13,5 15,8 75,4 10,4 256 - 0,0 0 1.014,5
02:37 17,9 13,6 15,8 75,8 10,2 263 - 0,0 0 1.014,6
02:36 17,9 13,6 15,9 76,0 9,3 296 - 0,0 0 1.014,6
02:35 17,9 13,6 15,9 76,0 9,0 236 - 0,0 0 1.014,6
02:34 17,9 13,6 15,9 76,0 9,7 270 - 0,0 0 1.014,6
02:33 17,9 13,7 15,9 76,0 9,8 239 - 0,0 0 1.014,5
02:32 17,9 13,8 16,0 76,7 10,1 232 - 0,0 0 1.014,5
02:31 17,9 13,7 15,9 76,2 10,5 259 - 0,0 0 1.014,5
02:30 17,9 13,7 15,9 76,0 11,0 260 - 0,0 0 1.014,5
02:29 17,9 13,7 15,9 76,2 11,1 255 - 0,0 0 1.014,5
02:28 17,9 13,7 15,9 76,3 10,9 244 - 0,0 0 1.014,5
02:27 17,9 13,5 15,7 75,0 10,7 244 - 0,0 0 1.014,5
02:26 17,9 13,5 15,7 75,0 10,2 242 - 0,0 0 1.014,6
02:25 17,9 13,5 15,7 75,0 10,2 224 - 0,0 0 1.014,5
02:24 17,9 13,6 15,9 76,0 10,0 229 - 0,0 0 1.014,5
02:23 17,9 13,6 15,8 75,6 10,3 255 - 0,0 0 1.014,5
02:22 17,9 13,6 15,8 75,4 10,2 267 - 0,0 0 1.014,5
02:21 17,9 13,7 15,9 76,0 10,6 216 - 0,0 0 1.014,5
02:20 18,0 13,9 16,1 76,7 10,9 250 - 0,0 0 1.014,5
02:19 18,0 13,8 16,0 76,2 10,9 251 - 0,0 0 1.014,6
02:18 18,0 13,8 16,0 76,0 10,7 262 - 0,0 0 1.014,5
02:17 18,0 13,8 16,0 76,0 10,9 244 - 0,0 0 1.014,5
02:16 18,0 13,6 15,9 75,6 11,2 260 - 0,0 0 1.014,5
02:15 18,0 13,5 15,8 75,0 11,6 261 - 0,0 0 1.014,5
02:14 18,0 13,5 15,8 75,0 11,7 263 - 0,0 0 1.014,6
02:13 18,0 13,7 16,0 75,9 11,6 262 - 0,0 0 1.014,5
02:12 18,0 13,8 16,0 76,0 11,3 267 - 0,0 0 1.014,5
02:11 18,0 13,7 16,0 75,7 11,3 253 - 0,0 0 1.014,5
02:10 18,0 13,6 15,9 75,0 11,6 251 - 0,0 0 1.014,5
02:09 18,0 13,7 16,0 75,6 11,6 252 - 0,0 0 1.014,5
02:08 18,0 13,6 15,9 75,3 11,5 255 - 0,0 0 1.014,5
02:07 18,0 13,4 15,7 74,2 11,8 255 - 0,0 0 1.014,5
02:06 18,0 13,6 15,9 75,1 12,3 271 - 0,0 0 1.014,5
02:05 18,0 13,7 16,0 75,7 12,6 256 - 0,0 0 1.014,5
02:04 18,0 13,8 16,0 75,9 12,2 265 - 0,0 0 1.014,5
02:03 18,1 13,9 16,1 76,4 10,2 265 13,9 0,0 0 1.014,5
02:02 18,1 13,8 16,1 76,0 10,0 203 - 0,0 0 1.014,5
02:01 18,1 13,8 16,1 76,0 8,8 224 13,0 0,0 0 1.014,5
02:00 18,1 13,8 16,0 75,8 9,5 298 - 0,0 0 1.014,4
 
01:59 18,1 13,6 15,9 75,0 10,8 240 - 0,0 0 1.014,5
01:58 18,1 13,6 15,9 75,0 12,0 261 - 0,0 0 1.014,4
01:57 18,1 13,6 15,9 75,0 12,4 266 - 0,0 0 1.014,4
01:56 18,0 13,6 15,9 75,0 12,3 257 - 0,0 0 1.014,4
01:55 18,1 13,8 16,0 75,9 12,4 231 - 0,0 0 1.014,4
01:54 18,1 13,7 15,9 75,2 11,6 265 - 0,0 0 1.014,5
01:53 18,1 13,8 16,1 76,0 11,0 223 - 0,0 0 1.014,4
01:52 18,1 13,8 16,1 76,0 11,3 266 - 0,0 0 1.014,4
01:51 18,1 13,7 16,0 75,4 11,8 234 - 0,0 0 1.014,5
01:50 18,1 13,6 15,9 75,0 12,2 257 - 0,0 0 1.014,3
01:49 18,1 13,8 16,0 76,0 12,7 268 - 0,0 0 1.014,3
01:48 18,1 13,9 16,1 76,2 12,2 244 - 0,0 0 1.014,4
01:47 18,1 14,0 16,2 76,3 11,5 240 - 0,0 0 1.014,4
01:46 18,1 13,6 15,9 75,0 11,2 259 - 0,0 0 1.014,4
01:45 18,1 13,8 16,1 75,7 11,8 247 - 0,0 0 1.014,4
01:44 18,2 14,1 16,3 76,8 12,0 250 - 0,0 0 1.014,3
01:43 18,2 13,9 16,2 76,0 11,9 268 - 0,0 0 1.014,3
01:42 18,1 13,7 16,0 75,3 11,9 232 - 0,0 0 1.014,3
01:41 18,1 13,9 16,1 76,0 12,1 259 - 0,0 0 1.014,3
01:40 18,2 14,0 16,2 76,6 11,8 267 - 0,0 0 1.014,4
01:39 18,1 13,9 16,2 76,3 11,8 238 - 0,0 0 1.014,3
01:38 18,1 14,0 16,2 76,9 11,9 261 - 0,0 0 1.014,3
01:37 18,1 13,9 16,1 76,2 12,1 267 - 0,0 0 1.014,3
01:36 18,1 14,0 16,2 76,8 11,8 271 - 0,0 0 1.014,3
01:35 18,1 13,9 16,1 76,0 11,7 275 - 0,0 0 1.014,3
01:34 18,1 14,0 16,2 76,6 11,2 274 - 0,0 0 1.014,4
01:33 18,1 13,9 16,1 76,3 11,1 257 - 0,0 0 1.014,4
01:32 18,1 13,8 16,1 76,0 11,5 261 - 0,0 0 1.014,3
01:31 18,1 13,8 16,1 76,2 11,8 259 - 0,0 0 1.014,3
01:30 18,1 14,0 16,2 76,7 11,5 266 - 0,0 0 1.014,4
01:29 18,1 13,7 16,0 75,6 11,5 275 - 0,0 0 1.014,4
01:28 18,1 13,7 16,0 75,6 11,8 267 - 0,0 0 1.014,3
01:27 18,1 13,8 16,1 76,0 12,1 267 - 0,0 0 1.014,3
01:26 18,1 13,8 16,1 76,0 12,0 263 - 0,0 0 1.014,4
01:25 18,1 13,8 16,1 76,0 12,0 268 - 0,0 0 1.014,3
01:24 18,1 13,8 16,1 76,0 12,0 265 - 0,0 0 1.014,3
01:23 18,1 13,9 16,1 76,5 12,0 265 - 0,0 0 1.014,3
01:22 18,1 14,1 16,3 77,0 11,5 253 - 0,0 0 1.014,3
01:21 18,1 14,0 16,2 77,0 11,3 278 - 0,0 0 1.014,3
01:20 18,1 14,1 16,2 77,0 11,2 274 - 0,0 0 1.014,3
01:19 18,1 13,9 16,1 76,0 11,2 266 - 0,0 0 1.014,3
01:18 18,1 13,9 16,1 76,0 11,2 259 - 0,0 0 1.014,3
01:17 18,1 13,8 16,1 76,0 11,6 265 - 0,0 0 1.014,3
01:16 18,1 13,8 16,1 76,0 11,9 270 - 0,0 0 1.014,3
01:15 18,1 13,8 16,1 76,0 11,9 267 - 0,0 0 1.014,3
01:14 18,1 13,8 16,1 76,1 11,6 258 - 0,0 0 1.014,3
01:13 18,1 14,0 16,2 77,0 11,4 276 - 0,0 0 1.014,3
01:12 18,1 13,9 16,1 76,3 11,6 276 - 0,0 0 1.014,3
01:11 18,1 13,8 16,1 76,0 12,1 261 - 0,0 0 1.014,3
01:10 18,1 14,0 16,2 77,0 12,4 261 - 0,0 0 1.014,2
01:09 18,1 14,2 16,4 77,8 11,6 272 - 0,0 0 1.014,2
01:08 18,1 14,1 16,3 77,1 10,9 272 - 0,0 0 1.014,3
01:07 18,1 14,1 16,3 77,0 10,6 275 - 0,0 0 1.014,3
01:06 18,1 14,2 16,4 77,6 10,6 257 - 0,0 0 1.014,3
01:05 18,1 14,1 16,3 77,0 10,4 259 - 0,0 0 1.014,3
01:04 18,1 13,8 16,1 76,0 10,6 269 - 0,0 0 1.014,3
01:03 18,1 13,9 16,1 76,0 11,4 284 - 0,0 0 1.014,3
01:02 18,1 13,9 16,1 76,0 11,7 267 - 0,0 0 1.014,2
01:01 18,2 13,9 16,2 76,0 11,5 258 - 0,0 0 1.014,3
01:00 18,2 13,8 16,1 75,6 11,0 261 - 0,0 0 1.014,3
 
00:59 18,1 13,8 16,0 75,5 10,9 275 - 0,0 0 1.014,2
00:58 18,1 13,7 16,0 75,3 11,7 240 - 0,0 0 1.014,1
00:57 18,1 13,8 16,1 75,8 12,1 265 - 0,0 0 1.014,1
00:56 18,1 13,9 16,1 76,0 11,9 277 - 0,0 0 1.014,1
00:55 18,1 13,8 16,1 75,8 11,7 298 - 0,0 0 1.014,2
00:54 18,2 13,7 16,0 75,0 11,6 269 - 0,0 0 1.014,2
00:53 18,2 13,8 16,1 75,6 12,1 262 - 0,0 0 1.014,2
00:52 18,2 13,9 16,2 76,0 12,0 269 - 0,0 0 1.014,2
00:51 18,2 13,9 16,2 76,0 12,0 260 - 0,0 0 1.014,1
00:50 18,2 13,9 16,2 75,9 12,0 274 - 0,0 0 1.014,1
00:49 18,2 13,8 16,1 75,3 12,0 271 - 0,0 0 1.014,2
00:48 18,2 13,9 16,2 76,0 11,5 275 - 0,0 0 1.014,2
00:47 18,2 13,9 16,2 76,0 11,4 293 - 0,0 0 1.014,1
00:46 18,2 14,0 16,2 76,0 11,6 249 14,8 0,0 0 1.014,1
00:45 18,2 14,2 16,4 76,9 11,8 270 - 0,0 0 1.014,2
00:44 18,2 14,2 16,4 77,0 11,2 267 - 0,0 0 1.014,2
00:43 18,3 14,1 16,3 76,7 11,2 298 - 0,0 0 1.014,2
00:42 18,2 14,0 16,2 76,0 11,6 282 - 0,0 0 1.014,2
00:41 18,2 14,0 16,2 76,0 12,2 276 - 0,0 0 1.014,3
00:40 18,3 14,2 16,4 76,8 11,9 276 - 0,0 0 1.014,3
00:39 18,3 14,1 16,3 76,2 11,6 251 - 0,0 0 1.014,3
00:38 18,3 14,2 16,4 76,8 11,4 261 - 0,0 0 1.014,2
00:37 18,3 14,0 16,2 75,7 11,8 267 - 0,0 0 1.014,2
00:36 18,3 13,9 16,2 75,5 11,9 263 - 0,0 0 1.014,1
00:35 18,3 14,0 16,3 76,0 11,5 263 - 0,0 0 1.014,2
00:34 18,3 14,0 16,3 76,0 10,9 263 - 0,0 0 1.014,1
00:33 18,2 14,0 16,2 76,0 11,3 288 - 0,0 0 1.014,1
00:32 18,3 14,0 16,3 76,0 11,8 272 - 0,0 0 1.014,1
00:31 18,2 13,9 16,2 75,5 11,8 265 - 0,0 0 1.014,1
00:30 18,2 13,8 16,1 75,0 12,1 240 - 0,0 0 1.014,1
00:29 18,2 13,8 16,1 75,0 12,5 260 - 0,0 0 1.014,1
00:28 18,2 13,8 16,1 75,0 12,7 235 - 0,0 0 1.014,1
00:27 18,2 14,0 16,2 76,0 12,6 246 - 0,0 0 1.014,1
00:26 18,2 14,0 16,2 75,8 12,4 253 - 0,0 0 1.014,0
00:25 18,2 13,8 16,1 75,0 12,5 259 - 0,0 0 1.013,9
00:24 18,2 13,9 16,1 75,5 12,7 271 - 0,0 0 1.014,0
00:23 18,2 14,0 16,2 76,0 12,3 258 - 0,0 0 1.014,0
00:22 18,2 14,0 16,2 76,0 11,7 259 - 0,0 0 1.014,0
00:21 18,3 14,0 16,2 75,9 11,6 234 - 0,0 0 1.014,0
00:20 18,2 13,9 16,2 75,5 11,7 245 - 0,0 0 1.013,9
00:19 18,3 14,2 16,4 76,6 11,8 273 - 0,0 0 1.013,9
00:18 18,3 13,9 16,2 75,3 12,1 278 - 0,0 0 1.014,0
00:17 18,2 13,8 16,1 75,0 12,1 274 - 0,0 0 1.014,0
00:16 18,2 13,8 16,1 75,0 12,2 270 - 0,0 0 1.014,0
00:15 18,2 13,8 16,1 75,0 12,4 253 - 0,0 0 1.013,9
00:14 18,2 13,8 16,1 75,0 12,1 264 - 0,0 0 1.013,9
00:13 18,2 13,9 16,1 75,4 11,7 234 - 0,0 0 1.014,0
00:12 18,2 14,0 16,2 76,0 11,5 238 - 0,0 0 1.014,0
00:11 18,2 13,8 16,1 75,3 11,0 259 - 0,0 0 1.014,0
00:10 18,2 13,8 16,1 75,0 11,0 216 - 0,0 0 1.013,9
00:09 18,2 14,0 16,2 75,8 11,7 265 - 0,0 0 1.013,9
00:08 18,2 13,8 16,1 75,0 12,7 255 - 0,0 0 1.013,9
00:07 18,2 13,8 16,1 75,0 12,7 263 - 0,0 0 1.013,9
00:06 18,3 13,8 16,1 75,0 12,9 275 - 0,0 0 1.013,8
00:05 18,3 13,8 16,1 75,0 12,9 250 - 0,0 0 1.013,8
00:04 18,3 13,8 16,1 75,0 13,2 257 - 0,0 0 1.013,9
00:03 18,3 13,8 16,1 75,2 13,4 257 - 0,0 0 1.013,8
00:02 18,3 14,0 16,3 76,0 13,3 252 - 0,0 0 1.013,8
00:01 18,3 13,9 16,2 75,6 13,3 261 - 0,0 0 1.013,9
00:00 18,3 14,0 16,2 75,7 13,1 257 - 0,6 0 1.013,9
 
23:59 18,3 13,9 16,2 75,3 13,1 247 - 0,6 0 1.013,8
23:58 18,3 14,0 16,3 75,9 12,9 259 - 0,6 0 1.013,8
23:57 18,3 14,0 16,3 76,0 12,9 251 - 0,6 0 1.013,8
23:56 18,3 14,0 16,3 76,0 13,0 242 - 0,6 0 1.013,7
23:55 18,3 14,0 16,3 76,0 13,4 228 - 0,6 0 1.013,7
23:54 18,3 14,2 16,4 76,6 13,1 261 16,5 0,6 0 1.013,8
23:53 18,3 14,3 16,5 77,0 11,9 232 - 0,6 0 1.013,7
23:52 18,3 14,0 16,3 76,1 11,9 282 - 0,6 0 1.013,7
23:51 18,3 13,9 16,2 75,2 13,5 274 - 0,6 0 1.013,7
23:50 18,3 14,0 16,3 76,0 13,3 269 - 0,6 0 1.013,7
23:49 18,3 14,0 16,3 76,0 13,3 226 - 0,6 0 1.013,7
23:48 18,3 14,2 16,4 76,7 13,2 257 - 0,6 0 1.013,6
23:47 18,3 14,1 16,3 76,2 12,2 251 - 0,6 0 1.013,7
23:46 18,3 14,2 16,4 76,9 11,7 292 - 0,6 0 1.013,7
23:45 18,3 14,2 16,4 76,8 11,9 260 - 0,6 0 1.013,7
23:44 18,3 14,1 16,3 76,0 12,6 269 - 0,6 0 1.013,7
23:43 18,4 14,2 16,4 76,5 12,6 254 - 0,6 0 1.013,7
23:42 18,4 14,2 16,4 76,4 12,5 263 - 0,6 0 1.013,7
23:41 18,4 14,0 16,2 75,2 12,7 255 - 0,6 0 1.013,6
23:40 18,3 13,9 16,2 74,9 13,6 258 - 0,6 0 1.013,6
23:39 18,3 13,7 16,1 74,3 12,8 261 16,5 0,6 0 1.013,5
23:38 18,3 13,9 16,2 75,0 12,5 204 16,1 0,6 0 1.013,5
23:37 18,4 13,9 16,2 75,0 12,8 252 - 0,6 0 1.013,6
23:36 18,4 13,9 16,2 75,0 13,7 251 - 0,6 0 1.013,6
23:35 18,4 13,9 16,2 75,0 13,5 263 - 0,6 0 1.013,5
23:34 18,4 14,1 16,4 75,9 12,9 279 - 0,6 0 1.013,6
23:33 18,3 14,0 16,2 75,3 12,5 240 - 0,6 0 1.013,6
23:32 18,4 14,1 16,4 76,0 12,7 259 - 0,6 0 1.013,6
23:31 18,4 14,0 16,3 75,5 12,6 255 - 0,6 0 1.013,6
23:30 18,4 13,9 16,2 75,0 12,4 267 - 0,6 0 1.013,6
23:29 18,4 14,0 16,3 75,0 12,4 247 - 0,6 0 1.013,5
23:28 18,4 13,8 16,1 74,2 12,6 271 - 0,6 0 1.013,6
23:27 18,4 13,9 16,2 74,7 13,2 255 - 0,6 0 1.013,5
23:26 18,4 13,7 16,1 74,0 14,4 276 - 0,6 0 1.013,3
23:25 18,4 13,9 16,2 74,6 14,7 200 - 0,6 0 1.013,3
23:24 18,4 13,8 16,1 74,3 13,7 255 - 0,6 0 1.013,3
23:23 18,4 13,9 16,2 74,9 13,8 240 - 0,6 0 1.013,4
23:22 18,4 14,1 16,4 75,8 13,8 269 - 0,6 0 1.013,5
23:21 18,4 13,9 16,2 74,7 13,3 255 - 0,6 0 1.013,4
23:20 18,4 13,9 16,2 74,9 14,1 265 - 0,6 0 1.013,4
23:19 18,4 14,2 16,4 76,0 14,3 245 - 0,6 0 1.013,4
23:18 18,4 14,0 16,3 75,3 13,2 256 - 0,6 0 1.013,4
23:17 18,4 14,2 16,4 76,0 13,3 260 - 0,6 0 1.013,5
23:16 18,4 14,4 16,6 77,0 13,0 255 - 0,6 0 1.013,5
23:15 18,5 14,3 16,5 76,6 12,0 271 15,2 0,6 0 1.013,4
23:14 18,4 14,1 16,4 75,6 12,7 284 - 0,6 0 1.013,3
23:13 18,4 14,0 16,3 75,0 13,2 263 - 0,6 0 1.013,4
23:12 18,4 14,0 16,3 75,0 14,4 273 - 0,6 0 1.013,4